Observation data for Goodnight on 02/16/2017      Previous  Date  Next       Current Mesonet Observations  Soil Data  Daily Summary Page  Observations in Plain Language
KGO1 160600Z 19005KT 04/M02 A3009 RMK A01 T00411023  RH  063%=      5-min Rain = 0
KGO1 160601Z 20005KT 04/M02 A3009 RMK A01 T00421023  RH  063%=      5-min Rain = 0
KGO1 160602Z 20005KT 04/M02 A3009 RMK A01 T00421023  RH  063%=      5-min Rain = 0
KGO1 160603Z 20005KT 04/M02 A3009 RMK A01 T00421023  RH  063%=      5-min Rain = 0
KGO1 160604Z 20005KT 04/M02 A3009 RMK A01 T00421023  RH  062%=      5-min Rain = 0
KGO1 160605Z 20004KT 04/M02 A3009 RMK A01 T00431023  RH  062%=      5-min Rain = 0
KGO1 160606Z 20005KT 04/M02 A3009 RMK A01 T00431023  RH  062%=      5-min Rain = 0
KGO1 160607Z 20005KT 04/M02 A3009 RMK A01 T00421024  RH  062%=      5-min Rain = 0
KGO1 160608Z 19004KT 04/M02 A3009 RMK A01 T00421023  RH  062%=      5-min Rain = 0
KGO1 160609Z 19004KT 04/M02 A3009 RMK A01 T00441023  RH  062%=      5-min Rain = 0
KGO1 160610Z 19004KT 05/M02 A3009 RMK A01 T00461023  RH  061%=      5-min Rain = 0
KGO1 160611Z 20004KT 05/M02 A301 RMK A01 T00471023  RH  060%=      5-min Rain = 0
KGO1 160612Z 19004KT 05/M02 A301 RMK A01 T00471023  RH  060%=      5-min Rain = 0
KGO1 160613Z 19004KT 05/M02 A301 RMK A01 T00451023  RH  061%=      5-min Rain = 0
KGO1 160614Z 19003KT 04/M02 A301 RMK A01 T00441023  RH  062%=      5-min Rain = 0
KGO1 160615Z 19003KT 04/M02 A301 RMK A01 T00441023  RH  062%=      5-min Rain = 0
KGO1 160616Z 19003KT 04/M02 A301 RMK A01 T00421022  RH  063%=      5-min Rain = 0
KGO1 160617Z 18003KT 04/M02 A301 RMK A01 T00401023  RH  064%=      5-min Rain = 0
KGO1 160618Z 18003KT 04/M02 A301 RMK A01 T00401023  RH  064%=      5-min Rain = 0
KGO1 160619Z 18003KT 04/M02 A301 RMK A01 T00391023  RH  064%=      5-min Rain = 0
KGO1 160620Z 17003KT 04/M02 A301 RMK A01 T00391023  RH  064%=      5-min Rain = 0
KGO1 160621Z 17003KT 04/M02 A301 RMK A01 T00401023  RH  063%=      5-min Rain = 0
KGO1 160622Z 18003KT 04/M02 A301 RMK A01 T00411023  RH  063%=      5-min Rain = 0
KGO1 160623Z 19003KT 04/M02 A301 RMK A01 T00421023  RH  063%=      5-min Rain = 0
KGO1 160624Z 19003KT 04/M02 A301 RMK A01 T00421023  RH  062%=      5-min Rain = 0
KGO1 160625Z 19003KT 04/M02 A3009 RMK A01 T00431023  RH  062%=      5-min Rain = 0
KGO1 160626Z 21003KT 04/M02 A3009 RMK A01 T00441023  RH  062%=      5-min Rain = 0
KGO1 160627Z 21003KT 04/M02 A3009 RMK A01 T00441024  RH  061%=      5-min Rain = 0
KGO1 160628Z 21003KT 05/M02 A3009 RMK A01 T00451023  RH  061%=      5-min Rain = 0
KGO1 160629Z 21003KT 05/M02 A3009 RMK A01 T00451023  RH  061%=      5-min Rain = 0
KGO1 160630Z 21003KT 04/M02 A3009 RMK A01 T00441024  RH  061%=      5-min Rain = 0
KGO1 160631Z 21002KT 04/M02 A3009 RMK A01 T00431024  RH  062%=      5-min Rain = 0
KGO1 160632Z 22002KT 04/M02 A3009 RMK A01 T00431023  RH  062%=      5-min Rain = 0
KGO1 160633Z 22003KT 04/M02 A3009 RMK A01 T00411023  RH  063%=      5-min Rain = 0
KGO1 160634Z 23003KT 04/M02 A3009 RMK A01 T00411022  RH  063%=      5-min Rain = 0
KGO1 160635Z 23003KT 04/M02 A3009 RMK A01 T00411023  RH  063%=      5-min Rain = 0
KGO1 160636Z 23002KT 04/M02 A3009 RMK A01 T00411022  RH  063%=      5-min Rain = 0
KGO1 160637Z 24003KT 04/M02 A3009 RMK A01 T00401021  RH  064%=      5-min Rain = 0
KGO1 160638Z 24003KT 04/M02 A3009 RMK A01 T00391020  RH  065%=      5-min Rain = 0
KGO1 160639Z 23003KT 04/M02 A3009 RMK A01 T00381020  RH  066%=      5-min Rain = 0
KGO1 160640Z 24003KT 04/M02 A3009 RMK A01 T00381020  RH  066%=      5-min Rain = 0
KGO1 160641Z 24002KT 04/M02 A3009 RMK A01 T00361020  RH  067%=      5-min Rain = 0
KGO1 160642Z 23002KT 03/M02 A3009 RMK A01 T00341020  RH  068%=      5-min Rain = 0
KGO1 160643Z 23002KT 03/M02 A3009 RMK A01 T00341019  RH  068%=      5-min Rain = 0
KGO1 160644Z 23003KT 04/M02 A3009 RMK A01 T00351020  RH  068%=      5-min Rain = 0
KGO1 160645Z 23003KT 04/M02 A3009 RMK A01 T00361020  RH  067%=      5-min Rain = 0
KGO1 160646Z 22002KT 04/M02 A3009 RMK A01 T00371019  RH  067%=      5-min Rain = 0
KGO1 160647Z 22003KT 04/M02 A3009 RMK A01 T00381019  RH  066%=      5-min Rain = 0
KGO1 160648Z 23003KT 04/M02 A3009 RMK A01 T00391019  RH  066%=      5-min Rain = 0
KGO1 160649Z 23003KT 04/M02 A3009 RMK A01 T00401020  RH  065%=      5-min Rain = 0
KGO1 160650Z 22002KT 04/M02 A3008 RMK A01 T00411020  RH  065%=      5-min Rain = 0
KGO1 160651Z 22002KT 04/M02 A3008 RMK A01 T00411020  RH  064%=      5-min Rain = 0
KGO1 160652Z 22001KT 04/M02 A3008 RMK A01 T00421020  RH  064%=      5-min Rain = 0
KGO1 160653Z 21001KT 04/M02 A3008 RMK A01 T00411020  RH  064%=      5-min Rain = 0
KGO1 160654Z 21001KT 04/M02 A3008 RMK A01 T00411020  RH  064%=      5-min Rain = 0
KGO1 160655Z 22001KT 04/M02 A3008 RMK A01 T00391020  RH  065%=      5-min Rain = 0
KGO1 160656Z 21002KT 04/M02 A3008 RMK A01 T00391020  RH  065%=      5-min Rain = 0
KGO1 160657Z 21003KT 04/M02 A3008 RMK A01 T00381021  RH  065%=      5-min Rain = 0
KGO1 160658Z 22003KT 04/M02 A3008 RMK A01 T00381021  RH  066%=      5-min Rain = 0
KGO1 160659Z 22003KT 04/M02 A3008 RMK A01 T00381021  RH  066%=      5-min Rain = 0
KGO1 160700Z 22003KT 04/M02 A3008 RMK A01 T00371021  RH  066%=      5-min Rain = 0
KGO1 160701Z 22003KT 04/M02 A3008 RMK A01 T00361022  RH  066%=      5-min Rain = 0
KGO1 160702Z 22004KT 04/M02 A3008 RMK A01 T00361021  RH  066%=      5-min Rain = 0
KGO1 160703Z 22004KT 04/M02 A3008 RMK A01 T00361021  RH  067%=      5-min Rain = 0
KGO1 160704Z 22004KT 04/M02 A3008 RMK A01 T00351020  RH  067%=      5-min Rain = 0
KGO1 160705Z 22004KT 04/M02 A3008 RMK A01 T00351020  RH  067%=      5-min Rain = 0
KGO1 160706Z 22004KT 03/M02 A3008 RMK A01 T00341020  RH  067%=      5-min Rain = 0
KGO1 160707Z 22004KT 03/M02 A3008 RMK A01 T00331020  RH  068%=      5-min Rain = 0
KGO1 160708Z 22004KT 03/M02 A3008 RMK A01 T00331020  RH  068%=      5-min Rain = 0
KGO1 160709Z 23004KT 03/M02 A3008 RMK A01 T00321020  RH  069%=      5-min Rain = 0
KGO1 160710Z 23004KT 03/M02 A3008 RMK A01 T00311019  RH  069%=      5-min Rain = 0
KGO1 160711Z 23005KT 03/M02 A3008 RMK A01 T00301019  RH  070%=      5-min Rain = 0
KGO1 160712Z 23004KT 03/M02 A3008 RMK A01 T00301020  RH  070%=      5-min Rain = 0
KGO1 160713Z 23004KT 03/M02 A3008 RMK A01 T00291020  RH  070%=      5-min Rain = 0
KGO1 160714Z 23004KT 03/M02 A3008 RMK A01 T00291021  RH  070%=      5-min Rain = 0
KGO1 160715Z 23005KT 03/M02 A3008 RMK A01 T00281022  RH  070%=      5-min Rain = 0
KGO1 160716Z 23005KT 03/M02 A3008 RMK A01 T00261023  RH  070%=      5-min Rain = 0
KGO1 160717Z 23005KT 03/M02 A3008 RMK A01 T00251023  RH  070%=      5-min Rain = 0
KGO1 160718Z 23005KT 02/M02 A3008 RMK A01 T00241024  RH  071%=      5-min Rain = 0
KGO1 160719Z 23005KT 02/M02 A3007 RMK A01 T00231024  RH  071%=      5-min Rain = 0
KGO1 160720Z 23006KT 02/M03 A3007 RMK A01 T00211025  RH  071%=      5-min Rain = 0
KGO1 160721Z 23006KT 02/M03 A3007 RMK A01 T00201025  RH  072%=      5-min Rain = 0
KGO1 160722Z 23007KT 02/M02 A3007 RMK A01 T00201024  RH  073%=      5-min Rain = 0
KGO1 160723Z 23007KT 02/M02 A3007 RMK A01 T00201023  RH  073%=      5-min Rain = 0
KGO1 160724Z 23007KT 02/M02 A3007 RMK A01 T00211023  RH  073%=      5-min Rain = 0
KGO1 160725Z 23008KT 02/M02 A3007 RMK A01 T00221023  RH  072%=      5-min Rain = 0
KGO1 160726Z 23008KT 02/M02 A3007 RMK A01 T00211023  RH  072%=      5-min Rain = 0
KGO1 160727Z 23008KT 02/M02 A3007 RMK A01 T00201023  RH  073%=      5-min Rain = 0
KGO1 160728Z 23008KT 02/M02 A3007 RMK A01 T00191023  RH  073%=      5-min Rain = 0
KGO1 160729Z 23009KT 02/M02 A3007 RMK A01 T00191023  RH  074%=      5-min Rain = 0
KGO1 160730Z 23008KT 02/M02 A3007 RMK A01 T00191022  RH  074%=      5-min Rain = 0
KGO1 160731Z 23008KT 02/M02 A3007 RMK A01 T00201021  RH  074%=      5-min Rain = 0
KGO1 160732Z 23008KT 02/M02 A3007 RMK A01 T00201020  RH  075%=      5-min Rain = 0
KGO1 160733Z 23008KT 02/M02 A3007 RMK A01 T00211019  RH  075%=      5-min Rain = 0
KGO1 160734Z 23008KT 02/M02 A3007 RMK A01 T00221018  RH  075%=      5-min Rain = 0
KGO1 160735Z 23008KT 02/M02 A3007 RMK A01 T00221018  RH  075%=      5-min Rain = 0
KGO1 160736Z 23008KT 02/M02 A3007 RMK A01 T00231017  RH  075%=      5-min Rain = 0
KGO1 160737Z 23008KT 02/M02 A3007 RMK A01 T00221017  RH  075%=      5-min Rain = 0
KGO1 160738Z 23008KT 02/M02 A3007 RMK A01 T00221018  RH  075%=      5-min Rain = 0
KGO1 160739Z 23007KT 02/M02 A3007 RMK A01 T00221019  RH  074%=      5-min Rain = 0
KGO1 160740Z 23007KT 02/M02 A3007 RMK A01 T00221019  RH  074%=      5-min Rain = 0
KGO1 160741Z 23007KT 02/M02 A3007 RMK A01 T00221019  RH  074%=      5-min Rain = 0
KGO1 160742Z 23007KT 02/M02 A3007 RMK A01 T00221019  RH  074%=      5-min Rain = 0
KGO1 160743Z 23007KT 02/M02 A3007 RMK A01 T00221020  RH  074%=      5-min Rain = 0
KGO1 160744Z 23007KT 02/M02 A3007 RMK A01 T00221020  RH  073%=      5-min Rain = 0
KGO1 160745Z 23007KT 02/M02 A3007 RMK A01 T00221021  RH  073%=      5-min Rain = 0
KGO1 160746Z 23007KT 02/M02 A3007 RMK A01 T00221022  RH  073%=      5-min Rain = 0
KGO1 160747Z 23007KT 02/M02 A3007 RMK A01 T00221022  RH  073%=      5-min Rain = 0
KGO1 160748Z 23007KT 02/M02 A3007 RMK A01 T00231022  RH  072%=      5-min Rain = 0
KGO1 160749Z 23007KT 02/M02 A3007 RMK A01 T00231022  RH  072%=      5-min Rain = 0
KGO1 160750Z 23007KT 02/M02 A3007 RMK A01 T00231022  RH  072%=      5-min Rain = 0
KGO1 160751Z 23007KT 02/M02 A3007 RMK A01 T00231022  RH  072%=      5-min Rain = 0
KGO1 160752Z 23006KT 02/M02 A3007 RMK A01 T00231022  RH  072%=      5-min Rain = 0
KGO1 160753Z 23006KT 02/M02 A3007 RMK A01 T00231022  RH  072%=      5-min Rain = 0
KGO1 160754Z 23006KT 02/M02 A3007 RMK A01 T00221022  RH  073%=      5-min Rain = 0
KGO1 160755Z 23006KT 02/M02 A3007 RMK A01 T00231022  RH  072%=      5-min Rain = 0
KGO1 160756Z 23006KT 02/M02 A3007 RMK A01 T00231022  RH  072%=      5-min Rain = 0
KGO1 160757Z 23006KT 02/M02 A3007 RMK A01 T00231023  RH  072%=      5-min Rain = 0
KGO1 160758Z 23006KT 02/M02 A3007 RMK A01 T00231023  RH  072%=      5-min Rain = 0
KGO1 160759Z 23006KT 02/M02 A3007 RMK A01 T00221023  RH  072%=      5-min Rain = 0
KGO1 160800Z 23006KT 02/M02 A3007 RMK A01 T00221023  RH  072%=      5-min Rain = 0
KGO1 160801Z 23007KT 02/M02 A3007 RMK A01 T00221023  RH  072%=      5-min Rain = 0
KGO1 160802Z 23007KT 02/M02 A3007 RMK A01 T00211024  RH  072%=      5-min Rain = 0
KGO1 160803Z 23007KT 02/M02 A3007 RMK A01 T00211024  RH  072%=      5-min Rain = 0
KGO1 160804Z 23007KT 02/M03 A3007 RMK A01 T00201025  RH  072%=      5-min Rain = 0
KGO1 160805Z 23007KT 02/M03 A3007 RMK A01 T00191025  RH  073%=      5-min Rain = 0
KGO1 160806Z 23007KT 02/M03 A3007 RMK A01 T00181025  RH  074%=      5-min Rain = 0
KGO1 160807Z 23006KT 02/M02 A3007 RMK A01 T00161024  RH  074%=      5-min Rain = 0
KGO1 160808Z 23006KT 02/M02 A3007 RMK A01 T00161024  RH  075%=      5-min Rain = 0
KGO1 160809Z 23006KT 02/M03 A3006 RMK A01 T00151025  RH  075%=      5-min Rain = 0
KGO1 160810Z 23006KT 02/M03 A3006 RMK A01 T00151025  RH  075%=      5-min Rain = 0
KGO1 160811Z 23005KT 01/M03 A3006 RMK A01 T00141026  RH  075%=      5-min Rain = 0
KGO1 160812Z 24006KT 01/M03 A3006 RMK A01 T00131025  RH  075%=      5-min Rain = 0
KGO1 160813Z 24006KT 01/M02 A3006 RMK A01 T00131024  RH  076%=      5-min Rain = 0
KGO1 160814Z 24006KT 01/M02 A3006 RMK A01 T00131024  RH  076%=      5-min Rain = 0
KGO1 160815Z 24007KT 01/M02 A3006 RMK A01 T00131024  RH  076%=      5-min Rain = 0
KGO1 160816Z 24007KT 01/M02 A3006 RMK A01 T00131024  RH  076%=      5-min Rain = 0
KGO1 160817Z 25008KT 01/M02 A3006 RMK A01 T00131024  RH  076%=      5-min Rain = 0
KGO1 160818Z 25008KT 01/M03 A3006 RMK A01 T00131025  RH  076%=      5-min Rain = 0
KGO1 160819Z 25008KT 01/M03 A3006 RMK A01 T00121025  RH  076%=      5-min Rain = 0
KGO1 160820Z 25008KT 01/M03 A3006 RMK A01 T00121025  RH  076%=      5-min Rain = 0
KGO1 160821Z 25008KT 01/M03 A3006 RMK A01 T00121025  RH  076%=      5-min Rain = 0
KGO1 160822Z 25008KT 01/M03 A3006 RMK A01 T00121025  RH  076%=      5-min Rain = 0
KGO1 160823Z 25008KT 01/M03 A3006 RMK A01 T00111025  RH  077%=      5-min Rain = 0
KGO1 160824Z 25008KT 01/M03 A3006 RMK A01 T00111025  RH  077%=      5-min Rain = 0
KGO1 160825Z 25008KT 01/M03 A3006 RMK A01 T00111026  RH  076%=      5-min Rain = 0
KGO1 160826Z 25008KT 01/M03 A3006 RMK A01 T00121025  RH  076%=      5-min Rain = 0
KGO1 160827Z 25007KT 01/M03 A3006 RMK A01 T00131026  RH  076%=      5-min Rain = 0
KGO1 160828Z 25007KT 01/M03 A3006 RMK A01 T00141025  RH  075%=      5-min Rain = 0
KGO1 160829Z 25007KT 01/M03 A3006 RMK A01 T00141025  RH  075%=      5-min Rain = 0
KGO1 160830Z 26007KT 02/M03 A3005 RMK A01 T00151026  RH  074%=      5-min Rain = 0
KGO1 160831Z 26007KT 02/M03 A3005 RMK A01 T00151026  RH  074%=      5-min Rain = 0
KGO1 160832Z 26007KT 02/M03 A3005 RMK A01 T00151026  RH  074%=      5-min Rain = 0
KGO1 160833Z 26007KT 02/M03 A3005 RMK A01 T00161026  RH  074%=      5-min Rain = 0
KGO1 160834Z 26008KT 02/M03 A3005 RMK A01 T00171025  RH  073%=      5-min Rain = 0
KGO1 160835Z 26008KT 02/M03 A3005 RMK A01 T00191025  RH  073%=      5-min Rain = 0
KGO1 160836Z 26008KT 02/M03 A3005 RMK A01 T00201025  RH  072%=      5-min Rain = 0
KGO1 160837Z 25008KT 02/M02 A3005 RMK A01 T00221024  RH  072%=      5-min Rain = 0
KGO1 160838Z 25008KT 02/M02 A3005 RMK A01 T00231024  RH  071%=      5-min Rain = 0
KGO1 160839Z 26008KT 02/M02 A3005 RMK A01 T00231024  RH  071%=      5-min Rain = 0
KGO1 160840Z 26008KT 02/M02 A3005 RMK A01 T00241024  RH  071%=      5-min Rain = 0
KGO1 160841Z 26007KT 02/M02 A3005 RMK A01 T00241024  RH  071%=      5-min Rain = 0
KGO1 160842Z 26007KT 02/M02 A3005 RMK A01 T00241024  RH  071%=      5-min Rain = 0
KGO1 160843Z 27006KT 02/M02 A3005 RMK A01 T00231024  RH  071%=      5-min Rain = 0
KGO1 160844Z 26007KT 02/M03 A3005 RMK A01 T00231025  RH  071%=      5-min Rain = 0
KGO1 160845Z 26007KT 02/M03 A3005 RMK A01 T00221025  RH  071%=      5-min Rain = 0
KGO1 160846Z 26007KT 02/M03 A3005 RMK A01 T00211025  RH  071%=      5-min Rain = 0
KGO1 160847Z 26007KT 02/M03 A3005 RMK A01 T00211025  RH  072%=      5-min Rain = 0
KGO1 160848Z 27007KT 02/M02 A3005 RMK A01 T00201024  RH  073%=      5-min Rain = 0
KGO1 160849Z 27008KT 02/M02 A3005 RMK A01 T00201022  RH  074%=      5-min Rain = 0
KGO1 160850Z 26009KT 02/M02 A3005 RMK A01 T00191022  RH  074%=      5-min Rain = 0
KGO1 160851Z 26009KT 02/M02 A3005 RMK A01 T00211021  RH  074%=      5-min Rain = 0
KGO1 160852Z 26009KT 02/M02 A3005 RMK A01 T00231020  RH  073%=      5-min Rain = 0
KGO1 160853Z 27009KT 03/M02 A3005 RMK A01 T00251020  RH  072%=      5-min Rain = 0
KGO1 160854Z 26010KT 03/M02 A3005 RMK A01 T00271021  RH  071%=      5-min Rain = 0
KGO1 160855Z 26010KT 03/M02 A3005 RMK A01 T00291020  RH  070%=      5-min Rain = 0
KGO1 160856Z 26010KT 03/M02 A3005 RMK A01 T00291021  RH  070%=      5-min Rain = 0
KGO1 160857Z 26010KT 03/M02 A3005 RMK A01 T00301020  RH  070%=      5-min Rain = 0
KGO1 160858Z 26010KT 03/M02 A3005 RMK A01 T00311020  RH  069%=      5-min Rain = 0
KGO1 160859Z 26010KT 03/M02 A3005 RMK A01 T00311020  RH  069%=      5-min Rain = 0
KGO1 160900Z 26010KT 03/M02 A3004 RMK A01 T00311020  RH  069%=      5-min Rain = 0
KGO1 160901Z 26010KT 03/M02 A3004 RMK A01 T00301020  RH  070%=      5-min Rain = 0
KGO1 160902Z 26011KT 03/M02 A3004 RMK A01 T00301020  RH  070%=      5-min Rain = 0
KGO1 160903Z 26011KT 03/M02 A3004 RMK A01 T00301019  RH  070%=      5-min Rain = 0
KGO1 160904Z 26011KT 03/M02 A3004 RMK A01 T00301019  RH  070%=      5-min Rain = 0
KGO1 160905Z 26011KT 03/M02 A3004 RMK A01 T00301020  RH  070%=      5-min Rain = 0
KGO1 160906Z 26011KT 03/M02 A3004 RMK A01 T00301020  RH  069%=      5-min Rain = 0
KGO1 160907Z 26011KT 03/M02 A3004 RMK A01 T00311020  RH  069%=      5-min Rain = 0
KGO1 160908Z 26011KT 03/M02 A3004 RMK A01 T00321020  RH  068%=      5-min Rain = 0
KGO1 160909Z 26010KT 03/M02 A3004 RMK A01 T00331020  RH  068%=      5-min Rain = 0
KGO1 160910Z 26011KT 03/M02 A3004 RMK A01 T00321020  RH  068%=      5-min Rain = 0
KGO1 160911Z 26012KT 03/M02 A3004 RMK A01 T00321020  RH  068%=      5-min Rain = 0
KGO1 160912Z 26011KT 03/M02 A3004 RMK A01 T00331022  RH  068%=      5-min Rain = 0
KGO1 160913Z 26011KT 03/M02 A3004 RMK A01 T00331021  RH  067%=      5-min Rain = 0
KGO1 160914Z 26010KT 03/M02 A3004 RMK A01 T00331021  RH  068%=      5-min Rain = 0
KGO1 160915Z 26010KT 03/M02 A3004 RMK A01 T00321021  RH  068%=      5-min Rain = 0
KGO1 160916Z 27010KT 03/M02 A3004 RMK A01 T00311021  RH  068%=      5-min Rain = 0
KGO1 160917Z 26011KT 03/M02 A3004 RMK A01 T00311021  RH  068%=      5-min Rain = 0
KGO1 160918Z 26011KT 03/M02 A3004 RMK A01 T00311022  RH  068%=      5-min Rain = 0
KGO1 160919Z 26011KT 03/M02 A3004 RMK A01 T00311022  RH  068%=      5-min Rain = 0
KGO1 160920Z 26011KT 03/M02 A3004 RMK A01 T00311022  RH  068%=      5-min Rain = 0
KGO1 160921Z 26011KT 03/M02 A3004 RMK A01 T00321022  RH  068%=      5-min Rain = 0
KGO1 160922Z 26011KT 03/M02 A3004 RMK A01 T00311022  RH  068%=      5-min Rain = 0
KGO1 160923Z 26011KT 03/M02 A3004 RMK A01 T00301023  RH  068%=      5-min Rain = 0
KGO1 160924Z 26010KT 03/M02 A3004 RMK A01 T00311023  RH  068%=      5-min Rain = 0
KGO1 160925Z 26011KT 03/M02 A3004 RMK A01 T00311023  RH  068%=      5-min Rain = 0
KGO1 160926Z 26011KT 03/M02 A3004 RMK A01 T00301023  RH  068%=      5-min Rain = 0
KGO1 160927Z 26011KT 03/M02 A3004 RMK A01 T00301023  RH  068%=      5-min Rain = 0
KGO1 160928Z 26011KT 03/M02 A3004 RMK A01 T00301023  RH  068%=      5-min Rain = 0
KGO1 160929Z 26011KT 03/M02 A3004 RMK A01 T00291024  RH  068%=      5-min Rain = 0
KGO1 160930Z 26011KT 03/M02 A3004 RMK A01 T00291024  RH  068%=      5-min Rain = 0
KGO1 160931Z 26011KT 03/M02 A3004 RMK A01 T00291024  RH  068%=      5-min Rain = 0
KGO1 160932Z 26011KT 03/M02 A3004 RMK A01 T00281024  RH  068%=      5-min Rain = 0
KGO1 160933Z 26011KT 03/M02 A3004 RMK A01 T00281024  RH  069%=      5-min Rain = 0
KGO1 160934Z 26012KT 03/M02 A3004 RMK A01 T00281024  RH  069%=      5-min Rain = 0
KGO1 160935Z 26012KT 03/M02 A3004 RMK A01 T00281024  RH  069%=      5-min Rain = 0
KGO1 160936Z 26011KT 03/M02 A3004 RMK A01 T00281024  RH  068%=      5-min Rain = 0
KGO1 160937Z 26011KT 03/M02 A3004 RMK A01 T00281024  RH  068%=      5-min Rain = 0
KGO1 160938Z 26011KT 03/M02 A3004 RMK A01 T00281024  RH  068%=      5-min Rain = 0
KGO1 160939Z 26011KT 03/M02 A3004 RMK A01 T00281024  RH  069%=      5-min Rain = 0
KGO1 160940Z 26011KT 03/M02 A3004 RMK A01 T00281024  RH  069%=      5-min Rain = 0
KGO1 160941Z 26011KT 03/M02 A3004 RMK A01 T00271024  RH  069%=      5-min Rain = 0
KGO1 160942Z 27011KT 03/M02 A3004 RMK A01 T00271024  RH  069%=      5-min Rain = 0
KGO1 160943Z 26012KT 03/M03 A3004 RMK A01 T00261025  RH  069%=      5-min Rain = 0
KGO1 160944Z 27012KT 03/M03 A3004 RMK A01 T00261025  RH  069%=      5-min Rain = 0
KGO1 160945Z 27011KT 03/M02 A3004 RMK A01 T00271024  RH  069%=      5-min Rain = 0
KGO1 160946Z 27012KT 03/M03 A3004 RMK A01 T00261025  RH  069%=      5-min Rain = 0
KGO1 160947Z 27012KT 03/M03 A3004 RMK A01 T00261025  RH  069%=      5-min Rain = 0
KGO1 160948Z 27012KT 03/M03 A3004 RMK A01 T00261025  RH  069%=      5-min Rain = 0
KGO1 160949Z 27013KT 03/M03 A3004 RMK A01 T00271025  RH  069%=      5-min Rain = 0
KGO1 160950Z 27013KT 03/M03 A3004 RMK A01 T00281025  RH  068%=      5-min Rain = 0
KGO1 160951Z 27014KT 03/M03 A3004 RMK A01 T00291026  RH  067%=      5-min Rain = 0
KGO1 160952Z 26014KT 03/M03 A3004 RMK A01 T00301025  RH  067%=      5-min Rain = 0
KGO1 160953Z 26014KT 03/M03 A3004 RMK A01 T00311026  RH  066%=      5-min Rain = 0
KGO1 160954Z 26012KT 03/M03 A3004 RMK A01 T00321025  RH  066%=      5-min Rain = 0
KGO1 160955Z 26013KT 03/M03 A3004 RMK A01 T00311025  RH  066%=      5-min Rain = 0
KGO1 160956Z 27012KT 03/M03 A3004 RMK A01 T00311025  RH  066%=      5-min Rain = 0
KGO1 160957Z 27012KT 03/M03 A3004 RMK A01 T00311026  RH  066%=      5-min Rain = 0
KGO1 160958Z 27011KT 03/M03 A3004 RMK A01 T00321025  RH  066%=      5-min Rain = 0
KGO1 160959Z 27011KT 03/M03 A3004 RMK A01 T00321025  RH  066%=      5-min Rain = 0
KGO1 161000Z 27011KT 03/M03 A3004 RMK A01 T00311025  RH  066%=      5-min Rain = 0
KGO1 161001Z 27011KT 03/M03 A3004 RMK A01 T00311025  RH  067%=      5-min Rain = 0
KGO1 161002Z 27012KT 03/M03 A3004 RMK A01 T00301026  RH  067%=      5-min Rain = 0
KGO1 161003Z 27012KT 03/M03 A3004 RMK A01 T00301026  RH  067%=      5-min Rain = 0
KGO1 161004Z 27012KT 03/M03 A3004 RMK A01 T00301026  RH  067%=      5-min Rain = 0
KGO1 161005Z 27011KT 03/M03 A3004 RMK A01 T00291026  RH  067%=      5-min Rain = 0
KGO1 161006Z 27011KT 03/M03 A3004 RMK A01 T00281026  RH  067%=      5-min Rain = 0
KGO1 161007Z 27011KT 03/M03 A3004 RMK A01 T00291026  RH  067%=      5-min Rain = 0
KGO1 161008Z 27011KT 03/M03 A3004 RMK A01 T00271026  RH  068%=      5-min Rain = 0
KGO1 161009Z 27012KT 03/M03 A3004 RMK A01 T00261026  RH  068%=      5-min Rain = 0
KGO1 161010Z 27012KT 03/M03 A3004 RMK A01 T00261026  RH  068%=      5-min Rain = 0
KGO1 161011Z 27013KT 03/M03 A3003 RMK A01 T00261026  RH  068%=      5-min Rain = 0
KGO1 161012Z 27013KT 03/M03 A3003 RMK A01 T00261027  RH  068%=      5-min Rain = 0
KGO1 161013Z 27012KT 03/M03 A3003 RMK A01 T00261027  RH  068%=      5-min Rain = 0
KGO1 161014Z 27013KT 03/M03 A3003 RMK A01 T00271027  RH  068%=      5-min Rain = 0
KGO1 161015Z 27012KT 03/M03 A3003 RMK A01 T00271027  RH  068%=      5-min Rain = 0
KGO1 161016Z 27013KT 03/M03 A3003 RMK A01 T00261027  RH  068%=      5-min Rain = 0
KGO1 161017Z 27012KT 03/M03 A3003 RMK A01 T00261027  RH  068%=      5-min Rain = 0
KGO1 161018Z 27012KT 03/M03 A3003 RMK A01 T00261026  RH  068%=      5-min Rain = 0
KGO1 161019Z 27011KT 03/M03 A3003 RMK A01 T00261026  RH  068%=      5-min Rain = 0
KGO1 161020Z 27011KT 03/M03 A3003 RMK A01 T00251026  RH  069%=      5-min Rain = 0
KGO1 161021Z 27012KT 02/M03 A3003 RMK A01 T00241026  RH  069%=      5-min Rain = 0
KGO1 161022Z 27012KT 02/M03 A3003 RMK A01 T00241026  RH  070%=      5-min Rain = 0
KGO1 161023Z 27012KT 02/M03 A3003 RMK A01 T00231026  RH  070%=      5-min Rain = 0
KGO1 161024Z 27011KT 02/M03 A3003 RMK A01 T00231026  RH  070%=      5-min Rain = 0
KGO1 161025Z 27011KT 02/M03 A3003 RMK A01 T00231026  RH  070%=      5-min Rain = 0
KGO1 161026Z 27011KT 02/M03 A3003 RMK A01 T00231026  RH  070%=      5-min Rain = 0
KGO1 161027Z 27011KT 02/M03 A3003 RMK A01 T00231026  RH  070%=      5-min Rain = 0
KGO1 161028Z 27011KT 02/M03 A3003 RMK A01 T00221026  RH  070%=      5-min Rain = 0
KGO1 161029Z 27010KT 02/M03 A3003 RMK A01 T00211027  RH  071%=      5-min Rain = 0
KGO1 161030Z 27011KT 02/M03 A3003 RMK A01 T00211026  RH  071%=      5-min Rain = 0
KGO1 161031Z 27010KT 02/M03 A3003 RMK A01 T00211026  RH  071%=      5-min Rain = 0
KGO1 161032Z 27011KT 02/M03 A3003 RMK A01 T00201027  RH  071%=      5-min Rain = 0
KGO1 161033Z 27010KT 02/M03 A3003 RMK A01 T00201027  RH  071%=      5-min Rain = 0
KGO1 161034Z 27010KT 02/M03 A3003 RMK A01 T00201027  RH  071%=      5-min Rain = 0
KGO1 161035Z 27010KT 02/M03 A3003 RMK A01 T00191027  RH  071%=      5-min Rain = 0
KGO1 161036Z 27010KT 02/M03 A3003 RMK A01 T00191026  RH  072%=      5-min Rain = 0
KGO1 161037Z 27010KT 02/M03 A3003 RMK A01 T00201026  RH  071%=      5-min Rain = 0
KGO1 161038Z 27010KT 02/M03 A3003 RMK A01 T00211026  RH  071%=      5-min Rain = 0
KGO1 161039Z 27011KT 02/M03 A3003 RMK A01 T00211026  RH  071%=      5-min Rain = 0
KGO1 161040Z 26010KT 02/M03 A3003 RMK A01 T00211026  RH  071%=      5-min Rain = 0
KGO1 161041Z 27011KT 02/M03 A3003 RMK A01 T00211026  RH  071%=      5-min Rain = 0
KGO1 161042Z 27010KT 02/M03 A3003 RMK A01 T00221026  RH  071%=      5-min Rain = 0
KGO1 161043Z 27010KT 02/M03 A3003 RMK A01 T00221026  RH  070%=      5-min Rain = 0
KGO1 161044Z 27010KT 02/M03 A3003 RMK A01 T00221026  RH  070%=      5-min Rain = 0
KGO1 161045Z 27011KT 02/M03 A3003 RMK A01 T00221026  RH  070%=      5-min Rain = 0
KGO1 161046Z 27011KT 02/M03 A3002 RMK A01 T00221027  RH  070%=      5-min Rain = 0
KGO1 161047Z 27010KT 02/M03 A3002 RMK A01 T00231026  RH  070%=      5-min Rain = 0
KGO1 161048Z 27010KT 02/M03 A3002 RMK A01 T00241026  RH  070%=      5-min Rain = 0
KGO1 161049Z 27010KT 02/M03 A3002 RMK A01 T00241026  RH  070%=      5-min Rain = 0
KGO1 161050Z 27010KT 02/M03 A3002 RMK A01 T00241026  RH  070%=      5-min Rain = 0
KGO1 161051Z 27010KT 02/M03 A3002 RMK A01 T00241026  RH  069%=      5-min Rain = 0
KGO1 161052Z 27009KT 02/M03 A3002 RMK A01 T00241026  RH  070%=      5-min Rain = 0
KGO1 161053Z 27010KT 02/M03 A3002 RMK A01 T00231026  RH  070%=      5-min Rain = 0
KGO1 161054Z 27009KT 02/M03 A3002 RMK A01 T00231026  RH  070%=      5-min Rain = 0
KGO1 161055Z 27009KT 02/M03 A3002 RMK A01 T00231027  RH  070%=      5-min Rain = 0
KGO1 161056Z 27009KT 02/M03 A3002 RMK A01 T00221027  RH  070%=      5-min Rain = 0
KGO1 161057Z 27010KT 02/M03 A3002 RMK A01 T00221027  RH  070%=      5-min Rain = 0
KGO1 161058Z 27010KT 02/M03 A3002 RMK A01 T00221027  RH  070%=      5-min Rain = 0
KGO1 161059Z 27011KT 02/M03 A3002 RMK A01 T00221028  RH  070%=      5-min Rain = 0
KGO1 161100Z 27011KT 02/M03 A3002 RMK A01 T00221028  RH  070%=      5-min Rain = 0
KGO1 161101Z 27011KT 02/M03 A3002 RMK A01 T00221028  RH  069%=      5-min Rain = 0
KGO1 161102Z 26011KT 02/M03 A3002 RMK A01 T00231027  RH  069%=      5-min Rain = 0
KGO1 161103Z 26011KT 02/M03 A3002 RMK A01 T00231027  RH  069%=      5-min Rain = 0
KGO1 161104Z 27011KT 02/M03 A3002 RMK A01 T00231027  RH  070%=      5-min Rain = 0
KGO1 161105Z 27011KT 02/M03 A3002 RMK A01 T00221027  RH  070%=      5-min Rain = 0
KGO1 161106Z 26011KT 02/M03 A3002 RMK A01 T00221027  RH  070%=      5-min Rain = 0
KGO1 161107Z 26011KT 02/M03 A3002 RMK A01 T00221028  RH  070%=      5-min Rain = 0
KGO1 161108Z 27011KT 02/M03 A3002 RMK A01 T00221028  RH  070%=      5-min Rain = 0
KGO1 161109Z 27010KT 02/M03 A3002 RMK A01 T00221028  RH  070%=      5-min Rain = 0
KGO1 161110Z 27010KT 02/M03 A3002 RMK A01 T00211028  RH  070%=      5-min Rain = 0
KGO1 161111Z 26010KT 02/M03 A3002 RMK A01 T00211027  RH  070%=      5-min Rain = 0
KGO1 161112Z 27011KT 02/M03 A3002 RMK A01 T00211028  RH  070%=      5-min Rain = 0
KGO1 161113Z 26010KT 02/M03 A3002 RMK A01 T00201028  RH  070%=      5-min Rain = 0
KGO1 161114Z 26011KT 02/M03 A3002 RMK A01 T00211028  RH  070%=      5-min Rain = 0
KGO1 161115Z 26011KT 02/M03 A3002 RMK A01 T00221027  RH  070%=      5-min Rain = 0
KGO1 161116Z 26011KT 02/M03 A3001 RMK A01 T00241026  RH  070%=      5-min Rain = 0
KGO1 161117Z 26011KT 03/M03 A3002 RMK A01 T00251026  RH  069%=      5-min Rain = 0
KGO1 161118Z 26011KT 03/M03 A3001 RMK A01 T00261026  RH  069%=      5-min Rain = 0
KGO1 161119Z 26011KT 03/M03 A3001 RMK A01 T00271026  RH  068%=      5-min Rain = 0
KGO1 161120Z 26012KT 03/M03 A3001 RMK A01 T00271026  RH  068%=      5-min Rain = 0
KGO1 161121Z 26012KT 03/M03 A3001 RMK A01 T00271027  RH  068%=      5-min Rain = 0
KGO1 161122Z 26011KT 03/M03 A3001 RMK A01 T00271027  RH  068%=      5-min Rain = 0
KGO1 161123Z 26012KT 03/M03 A3001 RMK A01 T00271027  RH  068%=      5-min Rain = 0
KGO1 161124Z 26012KT 03/M03 A3001 RMK A01 T00271027  RH  068%=      5-min Rain = 0
KGO1 161125Z 26012KT 03/M03 A3001 RMK A01 T00271027  RH  067%=      5-min Rain = 0
KGO1 161126Z 26011KT 03/M03 A3001 RMK A01 T00281026  RH  067%=      5-min Rain = 0
KGO1 161127Z 26011KT 03/M03 A3001 RMK A01 T00281027  RH  067%=      5-min Rain = 0
KGO1 161128Z 26011KT 03/M03 A3001 RMK A01 T00281027  RH  067%=      5-min Rain = 0
KGO1 161129Z 26012KT 03/M03 A3001 RMK A01 T00291027  RH  067%=      5-min Rain = 0
KGO1 161130Z 26011KT 03/M03 A3001 RMK A01 T00301027  RH  066%=      5-min Rain = 0
KGO1 161131Z 26011KT 03/M03 A3001 RMK A01 T00301026  RH  066%=      5-min Rain = 0
KGO1 161132Z 26011KT 03/M03 A3001 RMK A01 T00291027  RH  066%=      5-min Rain = 0
KGO1 161133Z 26010KT 03/M03 A3001 RMK A01 T00301027  RH  066%=      5-min Rain = 0
KGO1 161134Z 26011KT 03/M03 A3001 RMK A01 T00291027  RH  066%=      5-min Rain = 0
KGO1 161135Z 26011KT 03/M03 A3001 RMK A01 T00301027  RH  066%=      5-min Rain = 0
KGO1 161136Z 26011KT 03/M03 A3001 RMK A01 T00301027  RH  066%=      5-min Rain = 0
KGO1 161137Z 26011KT 03/M03 A3001 RMK A01 T00291027  RH  066%=      5-min Rain = 0
KGO1 161138Z 26010KT 03/M03 A3001 RMK A01 T00291028  RH  066%=      5-min Rain = 0
KGO1 161139Z 26011KT 03/M03 A3001 RMK A01 T00301027  RH  066%=      5-min Rain = 0
KGO1 161140Z 26011KT 03/M03 A3001 RMK A01 T00301027  RH  066%=      5-min Rain = 0
KGO1 161141Z 26011KT 03/M03 A3001 RMK A01 T00291027  RH  066%=      5-min Rain = 0
KGO1 161142Z 26011KT 03/M03 A3001 RMK A01 T00291027  RH  066%=      5-min Rain = 0
KGO1 161143Z 26011KT 03/M03 A3001 RMK A01 T00291027  RH  066%=      5-min Rain = 0
KGO1 161144Z 27011KT 03/M03 A3001 RMK A01 T00301027  RH  066%=      5-min Rain = 0
KGO1 161145Z 26011KT 03/M03 A3001 RMK A01 T00291027  RH  066%=      5-min Rain = 0
KGO1 161146Z 27011KT 03/M03 A3001 RMK A01 T00301027  RH  066%=      5-min Rain = 0
KGO1 161147Z 26011KT 03/M03 A3001 RMK A01 T00291027  RH  066%=      5-min Rain = 0
KGO1 161148Z 26011KT 03/M03 A3001 RMK A01 T00291027  RH  066%=      5-min Rain = 0
KGO1 161149Z 26011KT 03/M03 A3001 RMK A01 T00291027  RH  066%=      5-min Rain = 0
KGO1 161150Z 26011KT 03/M03 A3001 RMK A01 T00291028  RH  066%=      5-min Rain = 0
KGO1 161151Z 26011KT 03/M03 A3001 RMK A01 T00281028  RH  067%=      5-min Rain = 0
KGO1 161152Z 26011KT 03/M03 A3001 RMK A01 T00281028  RH  067%=      5-min Rain = 0
KGO1 161153Z 26011KT 03/M03 A3001 RMK A01 T00281028  RH  067%=      5-min Rain = 0
KGO1 161154Z 26011KT 03/M03 A3001 RMK A01 T00281028  RH  066%=      5-min Rain = 0
KGO1 161155Z 26011KT 03/M03 A3001 RMK A01 T00291028  RH  066%=      5-min Rain = 0
KGO1 161156Z 26011KT 03/M03 A3001 RMK A01 T00291028  RH  066%=      5-min Rain = 0
KGO1 161157Z 26011KT 03/M03 A3001 RMK A01 T00291028  RH  066%=      5-min Rain = 0
KGO1 161158Z 26011KT 03/M03 A3001 RMK A01 T00291028  RH  066%=      5-min Rain = 0
KGO1 161159Z 27011KT 03/M03 A3001 RMK A01 T00281029  RH  066%=      5-min Rain = 0
KGO1 161200Z 26011KT 03/M03 A3001 RMK A01 T00291028  RH  066%=      5-min Rain = 0
KGO1 161201Z 26010KT 03/M03 A3001 RMK A01 T00291028  RH  066%=      5-min Rain = 0
KGO1 161202Z 26010KT 03/M03 A3001 RMK A01 T00291028  RH  066%=      5-min Rain = 0
KGO1 161203Z 26011KT 03/M03 A3001 RMK A01 T00291028  RH  066%=      5-min Rain = 0
KGO1 161204Z 26012KT 03/M03 A3001 RMK A01 T00301028  RH  066%=      5-min Rain = 0
KGO1 161205Z 26011KT 03/M03 A3001 RMK A01 T00321027  RH  065%=      5-min Rain = 0
KGO1 161206Z 26012KT 03/M03 A3001 RMK A01 T00331027  RH  065%=      5-min Rain = 0
KGO1 161207Z 27012KT 04/M03 A3001 RMK A01 T00351027  RH  064%=      5-min Rain = 0
KGO1 161208Z 27011KT 04/M03 A3001 RMK A01 T00351027  RH  064%=      5-min Rain = 0
KGO1 161209Z 27011KT 04/M03 A3001 RMK A01 T00361027  RH  064%=      5-min Rain = 0
KGO1 161210Z 27012KT 04/M03 A3001 RMK A01 T00361027  RH  063%=      5-min Rain = 0
KGO1 161211Z 27011KT 04/M03 A3001 RMK A01 T00371027  RH  063%=      5-min Rain = 0
KGO1 161212Z 27010KT 04/M03 A3001 RMK A01 T00371027  RH  063%=      5-min Rain = 0
KGO1 161213Z 27010KT 04/M03 A3001 RMK A01 T00371027  RH  063%=      5-min Rain = 0
KGO1 161214Z 27010KT 04/M03 A3001 RMK A01 T00371027  RH  063%=      5-min Rain = 0
KGO1 161215Z 27011KT 04/M03 A3001 RMK A01 T00371027  RH  063%=      5-min Rain = 0
KGO1 161216Z 27010KT 04/M03 A3001 RMK A01 T00361027  RH  063%=      5-min Rain = 0
KGO1 161217Z 27010KT 04/M03 A3001 RMK A01 T00361027  RH  063%=      5-min Rain = 0
KGO1 161218Z 27010KT 04/M03 A3001 RMK A01 T00351027  RH  064%=      5-min Rain = 0
KGO1 161219Z 27010KT 04/M03 A3001 RMK A01 T00351027  RH  064%=      5-min Rain = 0
KGO1 161220Z 27010KT 04/M03 A3001 RMK A01 T00351027  RH  064%=      5-min Rain = 0
KGO1 161221Z 27010KT 03/M03 A3001 RMK A01 T00341027  RH  064%=      5-min Rain = 0
KGO1 161222Z 27010KT 03/M03 A3001 RMK A01 T00341028  RH  064%=      5-min Rain = 0
KGO1 161223Z 26010KT 03/M03 A3001 RMK A01 T00331027  RH  064%=      5-min Rain = 0
KGO1 161224Z 26011KT 03/M03 A3001 RMK A01 T00331027  RH  065%=      5-min Rain = 0
KGO1 161225Z 26011KT 03/M03 A3001 RMK A01 T00331027  RH  065%=      5-min Rain = 0
KGO1 161226Z 26010KT 03/M03 A3001 RMK A01 T00331027  RH  065%=      5-min Rain = 0
KGO1 161227Z 26010KT 03/M03 A3001 RMK A01 T00321028  RH  065%=      5-min Rain = 0
KGO1 161228Z 26010KT 03/M03 A3001 RMK A01 T00321028  RH  065%=      5-min Rain = 0
KGO1 161229Z 26011KT 03/M03 A3001 RMK A01 T00311028  RH  065%=      5-min Rain = 0
KGO1 161230Z 27011KT 03/M03 A3001 RMK A01 T00311028  RH  065%=      5-min Rain = 0
KGO1 161231Z 26011KT 03/M03 A3001 RMK A01 T00311028  RH  065%=      5-min Rain = 0
KGO1 161232Z 26010KT 03/M03 A3001 RMK A01 T00321028  RH  065%=      5-min Rain = 0
KGO1 161233Z 27011KT 03/M03 A3001 RMK A01 T00321028  RH  065%=      5-min Rain = 0
KGO1 161234Z 27010KT 03/M03 A3001 RMK A01 T00321028  RH  065%=      5-min Rain = 0
KGO1 161235Z 27011KT 03/M03 A3001 RMK A01 T00321028  RH  065%=      5-min Rain = 0
KGO1 161236Z 27010KT 03/M03 A3001 RMK A01 T00321028  RH  064%=      5-min Rain = 0
KGO1 161237Z 27010KT 03/M03 A3001 RMK A01 T00321028  RH  065%=      5-min Rain = 0
KGO1 161238Z 27010KT 03/M03 A3001 RMK A01 T00321028  RH  065%=      5-min Rain = 0
KGO1 161239Z 27011KT 03/M03 A3001 RMK A01 T00311029  RH  065%=      5-min Rain = 0
KGO1 161240Z 26010KT 03/M03 A3001 RMK A01 T00331028  RH  064%=      5-min Rain = 0
KGO1 161241Z 26011KT 03/M03 A3001 RMK A01 T00331028  RH  065%=      5-min Rain = 0
KGO1 161242Z 26012KT 03/M03 A3001 RMK A01 T00331028  RH  064%=      5-min Rain = 0
KGO1 161243Z 27012KT 03/M03 A3001 RMK A01 T00341028  RH  064%=      5-min Rain = 0
KGO1 161244Z 26011KT 04/M03 A3001 RMK A01 T00351028  RH  064%=      5-min Rain = 0
KGO1 161245Z 27012KT 04/M03 A3001 RMK A01 T00361028  RH  063%=      5-min Rain = 0
KGO1 161246Z 27012KT 04/M03 A3001 RMK A01 T00371028  RH  063%=      5-min Rain = 0
KGO1 161247Z 27012KT 04/M03 A3001 RMK A01 T00371028  RH  063%=      5-min Rain = 0
KGO1 161248Z 27011KT 04/M03 A30 RMK A01 T00371027  RH  063%=      5-min Rain = 0
KGO1 161249Z 27011KT 04/M03 A30 RMK A01 T00371027  RH  063%=      5-min Rain = 0
KGO1 161250Z 27012KT 04/M03 A3001 RMK A01 T00371027  RH  063%=      5-min Rain = 0
KGO1 161251Z 27012KT 04/M03 A3001 RMK A01 T00371027  RH  063%=      5-min Rain = 0
KGO1 161252Z 26012KT 04/M03 A3001 RMK A01 T00371027  RH  063%=      5-min Rain = 0
KGO1 161253Z 27011KT 04/M03 A3001 RMK A01 T00361027  RH  063%=      5-min Rain = 0
KGO1 161254Z 27011KT 04/M03 A3001 RMK A01 T00361027  RH  063%=      5-min Rain = 0
KGO1 161255Z 27010KT 04/M03 A3001 RMK A01 T00351027  RH  063%=      5-min Rain = 0
KGO1 161256Z 27012KT 04/M03 A3001 RMK A01 T00351028  RH  064%=      5-min Rain = 0
KGO1 161257Z 27011KT 04/M03 A3001 RMK A01 T00351028  RH  064%=      5-min Rain = 0
KGO1 161258Z 27011KT 04/M03 A3001 RMK A01 T00351028  RH  064%=      5-min Rain = 0
KGO1 161259Z 27011KT 03/M03 A3001 RMK A01 T00341028  RH  064%=      5-min Rain = 0
KGO1 161300Z 26011KT 03/M03 A3001 RMK A01 T00341028  RH  064%=      5-min Rain = 0
KGO1 161301Z 27011KT 03/M03 A3001 RMK A01 T00341028  RH  064%=      5-min Rain = 0
KGO1 161302Z 27011KT 03/M03 A3001 RMK A01 T00341028  RH  064%=      5-min Rain = 0
KGO1 161303Z 27011KT 03/M03 A3001 RMK A01 T00341028  RH  064%=      5-min Rain = 0
KGO1 161304Z 26011KT 03/M03 A3001 RMK A01 T00331028  RH  064%=      5-min Rain = 0
KGO1 161305Z 26011KT 03/M03 A3001 RMK A01 T00321028  RH  065%=      5-min Rain = 0
KGO1 161306Z 26011KT 03/M03 A3001 RMK A01 T00311028  RH  065%=      5-min Rain = 0
KGO1 161307Z 26011KT 03/M03 A3001 RMK A01 T00311028  RH  065%=      5-min Rain = 0
KGO1 161308Z 26011KT 03/M03 A3001 RMK A01 T00301029  RH  065%=      5-min Rain = 0
KGO1 161309Z 26011KT 03/M03 A3001 RMK A01 T00301029  RH  065%=      5-min Rain = 0
KGO1 161310Z 26011KT 03/M03 A3001 RMK A01 T00301028  RH  065%=      5-min Rain = 0
KGO1 161311Z 26011KT 03/M03 A3001 RMK A01 T00301028  RH  065%=      5-min Rain = 0
KGO1 161312Z 26011KT 03/M03 A3001 RMK A01 T00301028  RH  065%=      5-min Rain = 0
KGO1 161313Z 26011KT 03/M03 A3001 RMK A01 T00301029  RH  065%=      5-min Rain = 0
KGO1 161314Z 26012KT 03/M03 A3001 RMK A01 T00301029  RH  065%=      5-min Rain = 0
KGO1 161315Z 26011KT 03/M03 A3001 RMK A01 T00311029  RH  065%=      5-min Rain = 0
KGO1 161316Z 26012KT 03/M03 A3001 RMK A01 T00311029  RH  065%=      5-min Rain = 0
KGO1 161317Z 26012KT 03/M03 A30 RMK A01 T00321029  RH  065%=      5-min Rain = 0
KGO1 161318Z 26012KT 03/M03 A30 RMK A01 T00321029  RH  064%=      5-min Rain = 0
KGO1 161319Z 26013KT 03/M03 A30 RMK A01 T00321029  RH  064%=      5-min Rain = 0
KGO1 161320Z 26012KT 03/M03 A30 RMK A01 T00331029  RH  064%=      5-min Rain = 0
KGO1 161321Z 26013KT 03/M03 A30 RMK A01 T00331028  RH  064%=      5-min Rain = 0
KGO1 161322Z 26013KT 03/M03 A30 RMK A01 T00321029  RH  064%=      5-min Rain = 0
KGO1 161323Z 26013KT 03/M03 A3001 RMK A01 T00331029  RH  064%=      5-min Rain = 0
KGO1 161324Z 26013KT 03/M03 A3001 RMK A01 T00321029  RH  064%=      5-min Rain = 0
KGO1 161325Z 26011KT 03/M03 A3001 RMK A01 T00321029  RH  064%=      5-min Rain = 0
KGO1 161326Z 26011KT 03/M03 A3001 RMK A01 T00321028  RH  064%=      5-min Rain = 0
KGO1 161327Z 27011KT 03/M03 A3001 RMK A01 T00321028  RH  065%=      5-min Rain = 0
KGO1 161328Z 27011KT 03/M03 A3001 RMK A01 T00311028  RH  065%=      5-min Rain = 0
KGO1 161329Z 26012KT 03/M03 A3001 RMK A01 T00311029  RH  065%=      5-min Rain = 0
KGO1 161330Z 26012KT 03/M03 A3001 RMK A01 T00311028  RH  065%=      5-min Rain = 0
KGO1 161331Z 26011KT 03/M03 A3001 RMK A01 T00311029  RH  065%=      5-min Rain = 0
KGO1 161332Z 26011KT 03/M03 A3001 RMK A01 T00311029  RH  065%=      5-min Rain = 0
KGO1 161333Z 26012KT 03/M03 A3001 RMK A01 T00311029  RH  065%=      5-min Rain = 0
KGO1 161334Z 26011KT 03/M03 A3001 RMK A01 T00311029  RH  065%=      5-min Rain = 0
KGO1 161335Z 26012KT 03/M03 A3001 RMK A01 T00311029  RH  065%=      5-min Rain = 0
KGO1 161336Z 26012KT 03/M03 A30 RMK A01 T00311029  RH  065%=      5-min Rain = 0
KGO1 161337Z 26012KT 03/M03 A3001 RMK A01 T00311028  RH  065%=      5-min Rain = 0
KGO1 161338Z 26012KT 03/M03 A3001 RMK A01 T00311028  RH  065%=      5-min Rain = 0
KGO1 161339Z 26012KT 03/M03 A30 RMK A01 T00311029  RH  065%=      5-min Rain = 0
KGO1 161340Z 26012KT 03/M03 A30 RMK A01 T00311028  RH  065%=      5-min Rain = 0
KGO1 161341Z 26011KT 03/M03 A30 RMK A01 T00311028  RH  065%=      5-min Rain = 0
KGO1 161342Z 25011KT 03/M03 A30 RMK A01 T00311028  RH  065%=      5-min Rain = 0
KGO1 161343Z 26011KT 03/M03 A30 RMK A01 T00311028  RH  065%=      5-min Rain = 0
KGO1 161344Z 26011KT 03/M03 A30 RMK A01 T00311027  RH  065%=      5-min Rain = 0
KGO1 161345Z 26011KT 03/M03 A30 RMK A01 T00311028  RH  065%=      5-min Rain = 0
KGO1 161346Z 26011KT 03/M03 A30 RMK A01 T00321028  RH  065%=      5-min Rain = 0
KGO1 161347Z 26012KT 03/M03 A30 RMK A01 T00331028  RH  064%=      5-min Rain = 0
KGO1 161348Z 26012KT 03/M03 A30 RMK A01 T00341028  RH  064%=      5-min Rain = 0
KGO1 161349Z 26012KT 04/M03 A30 RMK A01 T00361028  RH  063%=      5-min Rain = 0
KGO1 161350Z 26013KT 04/M03 A30 RMK A01 T00371027  RH  063%=      5-min Rain = 0
KGO1 161351Z 26013KT 04/M03 A30 RMK A01 T00381028  RH  062%=      5-min Rain = 0
KGO1 161352Z 26011KT 04/M03 A30 RMK A01 T00391028  RH  062%=      5-min Rain = 0
KGO1 161353Z 26011KT 04/M03 A30 RMK A01 T00401027  RH  062%=      5-min Rain = 0
KGO1 161354Z 26012KT 04/M03 A30 RMK A01 T00401027  RH  062%=      5-min Rain = 0
KGO1 161355Z 26011KT 04/M03 A30 RMK A01 T00401027  RH  062%=      5-min Rain = 0
KGO1 161356Z 26011KT 04/M03 A30 RMK A01 T00401027  RH  062%=      5-min Rain = 0
KGO1 161357Z 26011KT 04/M03 A30 RMK A01 T00401027  RH  062%=      5-min Rain = 0
KGO1 161358Z 26012KT 04/M03 A30 RMK A01 T00401027  RH  062%=      5-min Rain = 0
KGO1 161359Z 26011KT 04/M03 A30 RMK A01 T00401027  RH  062%=      5-min Rain = 0
KGO1 161400Z 26011KT 04/M03 A30 RMK A01 T00401027  RH  062%=      5-min Rain = 0
KGO1 161401Z 26010KT 04/M03 A30 RMK A01 T00411027  RH  061%=      5-min Rain = 0
KGO1 161402Z 26012KT 04/M03 A30 RMK A01 T00421026  RH  061%=      5-min Rain = 0
KGO1 161403Z 26012KT 04/M03 A30 RMK A01 T00421026  RH  061%=      5-min Rain = 0
KGO1 161404Z 26013KT 04/M03 A30 RMK A01 T00431026  RH  061%=      5-min Rain = 0
KGO1 161405Z 26014KT 04/M03 A30 RMK A01 T00431027  RH  060%=      5-min Rain = 0
KGO1 161406Z 26013KT 05/M03 A30 RMK A01 T00451026  RH  060%=      5-min Rain = 0
KGO1 161407Z 26013KT 05/M03 A30 RMK A01 T00451026  RH  060%=      5-min Rain = 0
KGO1 161408Z 26013KT 05/M03 A30 RMK A01 T00451026  RH  060%=      5-min Rain = 0
KGO1 161409Z 26015KT 05/M03 A30 RMK A01 T00451026  RH  060%=      5-min Rain = 0
KGO1 161410Z 26014KT 05/M03 A30 RMK A01 T00461026  RH  059%=      5-min Rain = 0
KGO1 161411Z 26014KT 05/M03 A30 RMK A01 T00471025  RH  060%=      5-min Rain = 0
KGO1 161412Z 26013KT 05/M03 A30 RMK A01 T00471025  RH  060%=      5-min Rain = 0
KGO1 161413Z 26013KT 05/M02 A30 RMK A01 T00471024  RH  060%=      5-min Rain = 0
KGO1 161414Z 26014KT 05/M03 A30 RMK A01 T00481025  RH  059%=      5-min Rain = 0
KGO1 161415Z 26013KT 05/M03 A30 RMK A01 T00481025  RH  059%=      5-min Rain = 0
KGO1 161416Z 26012KT 05/M02 A30 RMK A01 T00481024  RH  059%=      5-min Rain = 0
KGO1 161417Z 26012KT 05/M02 A30 RMK A01 T00481024  RH  059%=      5-min Rain = 0
KGO1 161418Z 26012KT 05/M02 A30 RMK A01 T00491024  RH  059%=      5-min Rain = 0
KGO1 161419Z 26013KT 05/M03 A30 RMK A01 T00491025  RH  059%=      5-min Rain = 0
KGO1 161420Z 26013KT 05/M02 A30 RMK A01 T00491024  RH  059%=      5-min Rain = 0
KGO1 161421Z 26012KT 05/M02 A30 RMK A01 T00501024  RH  059%=      5-min Rain = 0
KGO1 161422Z 26013KT 05/M02 A30 RMK A01 T00501023  RH  059%=      5-min Rain = 0
KGO1 161423Z 26012KT 05/M02 A30 RMK A01 T00501022  RH  059%=      5-min Rain = 0
KGO1 161424Z 26012KT 05/M02 A30 RMK A01 T00501022  RH  059%=      5-min Rain = 0
KGO1 161425Z 26013KT 05/M02 A30 RMK A01 T00511022  RH  059%=      5-min Rain = 0
KGO1 161426Z 27013KT 05/M02 A30 RMK A01 T00521022  RH  059%=      5-min Rain = 0
KGO1 161427Z 26013KT 05/M02 A30 RMK A01 T00531023  RH  058%=      5-min Rain = 0
KGO1 161428Z 26014KT 05/M02 A30 RMK A01 T00541022  RH  058%=      5-min Rain = 0
KGO1 161429Z 26014KT 05/M02 A30 RMK A01 T00541023  RH  058%=      5-min Rain = 0
KGO1 161430Z 26014KT 06/M02 A30 RMK A01 T00551023  RH  057%=      5-min Rain = 0
KGO1 161431Z 26012KT 06/M02 A30 RMK A01 T00551023  RH  057%=      5-min Rain = 0
KGO1 161432Z 26013KT 06/M02 A30 RMK A01 T00561022  RH  057%=      5-min Rain = 0
KGO1 161433Z 27013KT 06/M02 A30 RMK A01 T00561022  RH  057%=      5-min Rain = 0
KGO1 161434Z 27012KT 06/M02 A30 RMK A01 T00561022  RH  057%=      5-min Rain = 0
KGO1 161435Z 27013KT 06/M02 A30 RMK A01 T00571021  RH  057%=      5-min Rain = 0
KGO1 161436Z 27012KT 06/M02 A30 RMK A01 T00581021  RH  057%=      5-min Rain = 0
KGO1 161437Z 27013KT 06/M02 A30 RMK A01 T00581020  RH  057%=      5-min Rain = 0
KGO1 161438Z 27013KT 06/M02 A30 RMK A01 T00581021  RH  057%=      5-min Rain = 0
KGO1 161439Z 27012KT 06/M02 A30 RMK A01 T00591020  RH  057%=      5-min Rain = 0
KGO1 161440Z 27013KT 06/M02 A30 RMK A01 T00591019  RH  057%=      5-min Rain = 0
KGO1 161441Z 27012KT 06/M02 A30 RMK A01 T00591020  RH  057%=      5-min Rain = 0
KGO1 161442Z 27013KT 06/M02 A30 RMK A01 T00601019  RH  057%=      5-min Rain = 0
KGO1 161443Z 27013KT 06/M02 A30 RMK A01 T00601019  RH  057%=      5-min Rain = 0
KGO1 161444Z 27013KT 06/M02 A30 RMK A01 T00611018  RH  057%=      5-min Rain = 0
KGO1 161445Z 27012KT 06/M02 A30 RMK A01 T00611018  RH  057%=      5-min Rain = 0
KGO1 161446Z 27014KT 06/M02 A30 RMK A01 T00621018  RH  057%=      5-min Rain = 0
KGO1 161447Z 27012KT 06/M02 A30 RMK A01 T00621019  RH  056%=      5-min Rain = 0
KGO1 161448Z 27013KT 06/M02 A30 RMK A01 T00621018  RH  057%=      5-min Rain = 0
KGO1 161449Z 27013KT 06/M02 A30 RMK A01 T00621019  RH  056%=      5-min Rain = 0
KGO1 161450Z 28013KT 06/M02 A30 RMK A01 T00621019  RH  056%=      5-min Rain = 0
KGO1 161451Z 28013KT 06/M02 A30 RMK A01 T00631018  RH  056%=      5-min Rain = 0
KGO1 161452Z 27011KT 06/M02 A30 RMK A01 T00631018  RH  056%=      5-min Rain = 0
KGO1 161453Z 27012KT 06/M02 A30 RMK A01 T00641016  RH  056%=      5-min Rain = 0
KGO1 161454Z 27010KT 07/M01 A3001 RMK A01 T00651014  RH  057%=      5-min Rain = 0
KGO1 161455Z 27011KT 07/M01 A3001 RMK A01 T00661014  RH  057%=      5-min Rain = 0
KGO1 161456Z 27011KT 07/M01 A3001 RMK A01 T00671014  RH  056%=      5-min Rain = 0
KGO1 161457Z 27009KT 07/M01 A3001 RMK A01 T00681013  RH  056%=      5-min Rain = 0
KGO1 161458Z 28010KT 07/M01 A3001 RMK A01 T00701011  RH  056%=      5-min Rain = 0
KGO1 161459Z 28011KT 07/M01 A3001 RMK A01 T00711013  RH  055%=      5-min Rain = 0
KGO1 161500Z 28012KT 07/M02 A30 RMK A01 T00721016  RH  054%=      5-min Rain = 0
KGO1 161501Z 28011KT 07/M02 A30 RMK A01 T00721017  RH  053%=      5-min Rain = 0
KGO1 161502Z 27012KT 07/M02 A30 RMK A01 T00721018  RH  053%=      5-min Rain = 0
KGO1 161503Z 27011KT 07/M02 A30 RMK A01 T00731018  RH  052%=      5-min Rain = 0
KGO1 161504Z 27010KT 07/M01 A30 RMK A01 T00741013  RH  054%=      5-min Rain = 0
KGO1 161505Z 27012KT 08/M01 A30 RMK A01 T00751013  RH  053%=      5-min Rain = 0
KGO1 161506Z 27012KT 08/M01 A30 RMK A01 T00761014  RH  053%=      5-min Rain = 0
KGO1 161507Z 27011KT 08/M01 A30 RMK A01 T00761012  RH  054%=      5-min Rain = 0
KGO1 161508Z 28011KT 08/M02 A30 RMK A01 T00771015  RH  052%=      5-min Rain = 0
KGO1 161509Z 28011KT 08/M01 A30 RMK A01 T00771014  RH  052%=      5-min Rain = 0
KGO1 161510Z 27012KT 08/M01 A30 RMK A01 T00781013  RH  053%=      5-min Rain = 0
KGO1 161511Z 27012KT 08/M01 A30 RMK A01 T00781014  RH  052%=      5-min Rain = 0
KGO1 161512Z 28012KT 08/M01 A30 RMK A01 T00791013  RH  052%=      5-min Rain = 0
KGO1 161513Z 27012KT 08/M01 A30 RMK A01 T00791014  RH  052%=      5-min Rain = 0
KGO1 161514Z 27012KT 08/M01 A30 RMK A01 T00791013  RH  052%=      5-min Rain = 0
KGO1 161515Z 27014KT 08/M01 A30 RMK A01 T00801013  RH  052%=      5-min Rain = 0
KGO1 161516Z 27013KT 08/M02 A30 RMK A01 T00801016  RH  051%=      5-min Rain = 0
KGO1 161517Z 27010KT 08/M01 A30 RMK A01 T00801013  RH  052%=      5-min Rain = 0
KGO1 161518Z 28010KT 08/M01 A30 RMK A01 T00811010  RH  053%=      5-min Rain = 0
KGO1 161519Z 28010KT 08/M01 A30 RMK A01 T00821011  RH  052%=      5-min Rain = 0
KGO1 161520Z 27009KT 08/M01 A30 RMK A01 T00831009  RH  052%=      5-min Rain = 0
KGO1 161521Z 27008KT 08/M01 A30 RMK A01 T00841006  RH  053%=      5-min Rain = 0
KGO1 161522Z 27011KT 09/M00 A30 RMK A01 T00861004  RH  053%=      5-min Rain = 0
KGO1 161523Z 27013KT 09/M01 A30 RMK A01 T00871007  RH  052%=      5-min Rain = 0
KGO1 161524Z 27011KT 09/M01 A30 RMK A01 T00871008  RH  051%=      5-min Rain = 0
KGO1 161525Z 26012KT 09/M01 A30 RMK A01 T00871010  RH  051%=      5-min Rain = 0
KGO1 161526Z 27013KT 09/M01 A30 RMK A01 T00871008  RH  051%=      5-min Rain = 0
KGO1 161527Z 27013KT 09/M01 A30 RMK A01 T00871011  RH  050%=      5-min Rain = 0
KGO1 161528Z 27011KT 09/M01 A30 RMK A01 T00871010  RH  051%=      5-min Rain = 0
KGO1 161529Z 26013KT 09/M01 A30 RMK A01 T00871007  RH  052%=      5-min Rain = 0
KGO1 161530Z 26012KT 09/M00 A30 RMK A01 T00891003  RH  052%=      5-min Rain = 0
KGO1 161531Z 26012KT 09/M00 A30 RMK A01 T00901002  RH  053%=      5-min Rain = 0
KGO1 161532Z 26013KT 09/M01 A30 RMK A01 T00911006  RH  051%=      5-min Rain = 0
KGO1 161533Z 26013KT 09/M01 A30 RMK A01 T00911005  RH  051%=      5-min Rain = 0
KGO1 161534Z 26012KT 09/M00 A30 RMK A01 T00921004  RH  051%=      5-min Rain = 0
KGO1 161535Z 26012KT 09/M00 A30 RMK A01 T00921004  RH  051%=      5-min Rain = 0
KGO1 161536Z 25015KT 09/M01 A30 RMK A01 T00921006  RH  050%=      5-min Rain = 0
KGO1 161537Z 26014KT 09/M01 A30 RMK A01 T00921006  RH  050%=      5-min Rain = 0
KGO1 161538Z 26015KT 09/M01 A30 RMK A01 T00921007  RH  050%=      5-min Rain = 0
KGO1 161539Z 27015KT 09/M01 A30 RMK A01 T00921007  RH  050%=      5-min Rain = 0
KGO1 161540Z 26015KT 09/M01 A30 RMK A01 T00921007  RH  050%=      5-min Rain = 0
KGO1 161541Z 26015KT 09/M01 A30 RMK A01 T00921007  RH  050%=      5-min Rain = 0
KGO1 161542Z 26015KT 09/M01 A30 RMK A01 T00921007  RH  050%=      5-min Rain = 0
KGO1 161543Z 27012KT 09/M01 A30 RMK A01 T00921006  RH  050%=      5-min Rain = 0
KGO1 161544Z 26011KT 09/M00 A30 RMK A01 T00941002  RH  051%=      5-min Rain = 0
KGO1 161545Z 26012KT 10/M00 A30 RMK A01 T00961002  RH  051%=      5-min Rain = 0
KGO1 161546Z 27012KT 10/M00 A30 RMK A01 T00971001  RH  050%=      5-min Rain = 0
KGO1 161547Z 27012KT 10/M00 A30 RMK A01 T00971003  RH  049%=      5-min Rain = 0
KGO1 161548Z 27010KT 10/M00 A30 RMK A01 T00981002  RH  050%=      5-min Rain = 0
KGO1 161549Z 27011KT 10/M00 A30 RMK A01 T00991001  RH  050%=      5-min Rain = 0
KGO1 161550Z 27011KT 10/M00 A30 RMK A01 T00991002  RH  049%=      5-min Rain = 0
KGO1 161551Z 27012KT 10/M00 A2999 RMK A01 T00991004  RH  049%=      5-min Rain = 0
KGO1 161552Z 27011KT 10/M00 A2999 RMK A01 T01001004  RH  049%=      5-min Rain = 0
KGO1 161553Z 27011KT 10/M00 A2999 RMK A01 T01011001  RH  049%=      5-min Rain = 0
KGO1 161554Z 27012KT 10/M00 A2999 RMK A01 T01021003  RH  048%=      5-min Rain = 0
KGO1 161555Z 26012KT 10/00 A2999 RMK A01 T010300-0  RH  049%=      5-min Rain = 0
KGO1 161556Z 27012KT 10/M00 A2999 RMK A01 T01041002  RH  048%=      5-min Rain = 0
KGO1 161557Z 27012KT 10/M00 A2999 RMK A01 T01031002  RH  048%=      5-min Rain = 0
KGO1 161558Z 28012KT 10/M00 A2999 RMK A01 T01031002  RH  048%=      5-min Rain = 0
KGO1 161559Z 27012KT 10/M00 A2999 RMK A01 T01031003  RH  048%=      5-min Rain = 0
KGO1 161600Z 26012KT 10/00 A2999 RMK A01 T010400-0  RH  048%=      5-min Rain = 0
KGO1 161601Z 26013KT 11/M00 A2999 RMK A01 T01051002  RH  047%=      5-min Rain = 0
KGO1 161602Z 26013KT 10/M00 A2999 RMK A01 T01041003  RH  047%=      5-min Rain = 0
KGO1 161603Z 27011KT 10/M00 A2999 RMK A01 T01041001  RH  048%=      5-min Rain = 0
KGO1 161604Z 27012KT 11/00 A2999 RMK A01 T01050002  RH  049%=      5-min Rain = 0
KGO1 161605Z 26011KT 11/00 A2999 RMK A01 T01070000  RH  048%=      5-min Rain = 0
KGO1 161606Z 26012KT 11/00 A2999 RMK A01 T01070004  RH  049%=      5-min Rain = 0
KGO1 161607Z 26012KT 11/00 A2999 RMK A01 T01080000  RH  047%=      5-min Rain = 0
KGO1 161608Z 26012KT 11/00 A2999 RMK A01 T01080002  RH  048%=      5-min Rain = 0
KGO1 161609Z 26011KT 11/00 A2999 RMK A01 T01090001  RH  047%=      5-min Rain = 0
KGO1 161610Z 25011KT 11/00 A2999 RMK A01 T01100000  RH  047%=      5-min Rain = 0
KGO1 161611Z 26009KT 11/00 A2999 RMK A01 T01100002  RH  047%=      5-min Rain = 0
KGO1 161612Z 26010KT 11/00 A2999 RMK A01 T01110004  RH  048%=      5-min Rain = 0
KGO1 161613Z 26009KT 11/01 A2999 RMK A01 T01130008  RH  048%=      5-min Rain = 0
KGO1 161614Z 25008KT 11/01 A2999 RMK A01 T01140009  RH  048%=      5-min Rain = 0
KGO1 161615Z 25009KT 12/01 A2999 RMK A01 T01160008  RH  048%=      5-min Rain = 0
KGO1 161616Z 25010KT 12/01 A2999 RMK A01 T01180009  RH  047%=      5-min Rain = 0
KGO1 161617Z 25009KT 12/00 A2999 RMK A01 T01190004  RH  045%=      5-min Rain = 0
KGO1 161618Z 25011KT 12/01 A2999 RMK A01 T01190006  RH  046%=      5-min Rain = 0
KGO1 161619Z 25013KT 12/01 A2999 RMK A01 T01200005  RH  045%=      5-min Rain = 0
KGO1 161620Z 25012KT 12/00 A2999 RMK A01 T01200004  RH  045%=      5-min Rain = 0
KGO1 161621Z 25011KT 12/00 A2999 RMK A01 T01200004  RH  045%=      5-min Rain = 0
KGO1 161622Z 26012KT 12/01 A2999 RMK A01 T01200007  RH  046%=      5-min Rain = 0
KGO1 161623Z 26011KT 12/01 A2999 RMK A01 T01220005  RH  045%=      5-min Rain = 0
KGO1 161624Z 25011KT 12/01 A2999 RMK A01 T01230006  RH  045%=      5-min Rain = 0
KGO1 161625Z 26010KT 12/00 A2999 RMK A01 T01230004  RH  044%=      5-min Rain = 0
KGO1 161626Z 26010KT 12/01 A2999 RMK A01 T01230006  RH  044%=      5-min Rain = 0
KGO1 161627Z 25011KT 12/01 A2999 RMK A01 T01240007  RH  045%=      5-min Rain = 0
KGO1 161628Z 24009KT 13/01 A2999 RMK A01 T01260007  RH  044%=      5-min Rain = 0
KGO1 161629Z 24011KT 13/01 A2999 RMK A01 T01280009  RH  044%=      5-min Rain = 0
KGO1 161630Z 25008KT 13/02 A2999 RMK A01 T01310015  RH  045%=      5-min Rain = 0
KGO1 161631Z 25009KT 14/02 A2999 RMK A01 T01350017  RH  045%=      5-min Rain = 0
KGO1 161632Z 25009KT 14/01 A2999 RMK A01 T01360010  RH  042%=      5-min Rain = 0
KGO1 161633Z 25009KT 14/01 A2999 RMK A01 T01350009  RH  042%=      5-min Rain = 0
KGO1 161634Z 26009KT 13/01 A2999 RMK A01 T01340005  RH  041%=      5-min Rain = 0
KGO1 161635Z 26009KT 13/01 A2999 RMK A01 T01330007  RH  042%=      5-min Rain = 0
KGO1 161636Z 25008KT 13/01 A2999 RMK A01 T01340011  RH  043%=      5-min Rain = 0
KGO1 161637Z 24010KT 14/01 A2999 RMK A01 T01370013  RH  043%=      5-min Rain = 0
KGO1 161638Z 24011KT 14/01 A2999 RMK A01 T01380008  RH  041%=      5-min Rain = 0
KGO1 161639Z 24010KT 14/01 A2999 RMK A01 T01380007  RH  041%=      5-min Rain = 0
KGO1 161640Z 24009KT 14/01 A2999 RMK A01 T01390014  RH  043%=      5-min Rain = 0
KGO1 161641Z 24011KT 14/01 A2999 RMK A01 T01410007  RH  040%=      5-min Rain = 0
KGO1 161642Z 24009KT 14/00 A2999 RMK A01 T01400004  RH  039%=      5-min Rain = 0
KGO1 161643Z 25009KT 14/01 A2999 RMK A01 T01390011  RH  041%=      5-min Rain = 0
KGO1 161644Z 24010KT 14/01 A2999 RMK A01 T01410011  RH  041%=      5-min Rain = 0
KGO1 161645Z 23010KT 14/01 A2999 RMK A01 T01440012  RH  041%=      5-min Rain = 0
KGO1 161646Z 23009KT 15/01 A2999 RMK A01 T01450011  RH  040%=      5-min Rain = 0
KGO1 161647Z 23010KT 15/01 A2999 RMK A01 T01460013  RH  040%=      5-min Rain = 0
KGO1 161648Z 23008KT 15/01 A2999 RMK A01 T01460010  RH  039%=      5-min Rain = 0
KGO1 161649Z 24008KT 15/01 A2999 RMK A01 T01460010  RH  040%=      5-min Rain = 0
KGO1 161650Z 25009KT 15/01 A2999 RMK A01 T01460012  RH  040%=      5-min Rain = 0
KGO1 161651Z 23009KT 15/01 A2999 RMK A01 T01470011  RH  040%=      5-min Rain = 0
KGO1 161652Z 25009KT 15/01 A2999 RMK A01 T01470011  RH  039%=      5-min Rain = 0
KGO1 161653Z 24009KT 15/01 A2999 RMK A01 T01480008  RH  039%=      5-min Rain = 0
KGO1 161654Z 24008KT 15/01 A2999 RMK A01 T01480010  RH  039%=      5-min Rain = 0
KGO1 161655Z 24010KT 15/01 A2999 RMK A01 T01490012  RH  039%=      5-min Rain = 0
KGO1 161656Z 24007KT 15/01 A2999 RMK A01 T01490005  RH  038%=      5-min Rain = 0
KGO1 161657Z 24009KT 15/01 A2999 RMK A01 T01490010  RH  039%=      5-min Rain = 0
KGO1 161658Z 24008KT 15/01 A2999 RMK A01 T01490007  RH  038%=      5-min Rain = 0
KGO1 161659Z 23007KT 15/00 A2999 RMK A01 T01490004  RH  037%=      5-min Rain = 0
KGO1 161700Z 24007KT 15/01 A2999 RMK A01 T01480007  RH  038%=      5-min Rain = 0
KGO1 161701Z 25007KT 15/02 A2998 RMK A01 T01510015  RH  040%=      5-min Rain = 0
KGO1 161702Z 25007KT 15/01 A2998 RMK A01 T01540013  RH  038%=      5-min Rain = 0
KGO1 161703Z 24006KT 16/01 A2998 RMK A01 T01550008  RH  037%=      5-min Rain = 0
KGO1 161704Z 22009KT 15/01 A2998 RMK A01 T01540009  RH  037%=      5-min Rain = 0
KGO1 161705Z 24009KT 15/01 A2998 RMK A01 T01540005  RH  036%=      5-min Rain = 0
KGO1 161706Z 23008KT 15/00 A2998 RMK A01 T01520004  RH  037%=      5-min Rain = 0
KGO1 161707Z 23009KT 15/01 A2998 RMK A01 T01510008  RH  038%=      5-min Rain = 0
KGO1 161708Z 24009KT 15/01 A2998 RMK A01 T01530009  RH  038%=      5-min Rain = 0
KGO1 161709Z 23009KT 15/01 A2998 RMK A01 T01540009  RH  037%=      5-min Rain = 0
KGO1 161710Z 22011KT 16/01 A2998 RMK A01 T01550007  RH  037%=      5-min Rain = 0
KGO1 161711Z 22008KT 16/01 A2998 RMK A01 T01550005  RH  036%=      5-min Rain = 0
KGO1 161712Z 23009KT 16/01 A2998 RMK A01 T01550006  RH  036%=      5-min Rain = 0
KGO1 161713Z 22011KT 16/01 A2998 RMK A01 T01550007  RH  037%=      5-min Rain = 0
KGO1 161714Z 22011KT 15/01 A2998 RMK A01 T01540007  RH  037%=      5-min Rain = 0
KGO1 161715Z 23013KT 16/01 A2998 RMK A01 T01550008  RH  037%=      5-min Rain = 0
KGO1 161716Z 22009KT 16/00 A2998 RMK A01 T01550002  RH  035%=      5-min Rain = 0
KGO1 161717Z 22008KT 16/01 A2998 RMK A01 T01550010  RH  037%=      5-min Rain = 0
KGO1 161718Z 22011KT 16/01 A2998 RMK A01 T01570009  RH  037%=      5-min Rain = 0
KGO1 161719Z 24009KT 16/01 A2998 RMK A01 T01570007  RH  036%=      5-min Rain = 0
KGO1 161720Z 22009KT 16/01 A2998 RMK A01 T01580010  RH  037%=      5-min Rain = 0
KGO1 161721Z 23009KT 16/01 A2998 RMK A01 T01590010  RH  036%=      5-min Rain = 0
KGO1 161722Z 23012KT 16/01 A2998 RMK A01 T01600006  RH  035%=      5-min Rain = 0
KGO1 161723Z 22013KT 16/01 A2998 RMK A01 T01600009  RH  036%=      5-min Rain = 0
KGO1 161724Z 22013KT 16/01 A2998 RMK A01 T01590006  RH  035%=      5-min Rain = 0
KGO1 161725Z 22011KT 16/01 A2998 RMK A01 T01590010  RH  036%=      5-min Rain = 0
KGO1 161726Z 24010KT 16/01 A2998 RMK A01 T01600006  RH  035%=      5-min Rain = 0
KGO1 161727Z 22011KT 16/01 A2998 RMK A01 T01580006  RH  036%=      5-min Rain = 0
KGO1 161728Z 24014KT 16/01 A2998 RMK A01 T01580005  RH  035%=      5-min Rain = 0
KGO1 161729Z 24013KT 16/01 A2997 RMK A01 T01590005  RH  035%=      5-min Rain = 0
KGO1 161730Z 23013KT 16/00 A2997 RMK A01 T01590002  RH  034%=      5-min Rain = 0
KGO1 161731Z 24012KT 16/00 A2997 RMK A01 T01580004  RH  035%=      5-min Rain = 0
KGO1 161732Z 25011KT 16/00 A2997 RMK A01 T01570002  RH  035%=      5-min Rain = 0
KGO1 161733Z 25011KT 16/01 A2997 RMK A01 T01580007  RH  036%=      5-min Rain = 0
KGO1 161734Z 24012KT 16/01 A2997 RMK A01 T01600007  RH  035%=      5-min Rain = 0
KGO1 161735Z 23012KT 16/01 A2997 RMK A01 T01610007  RH  035%=      5-min Rain = 0
KGO1 161736Z 22011KT 16/00 A2997 RMK A01 T01620001  RH  033%=      5-min Rain = 0
KGO1 161737Z 23010KT 16/00 A2997 RMK A01 T01630004  RH  034%=      5-min Rain = 0
KGO1 161738Z 23011KT 16/01 A2997 RMK A01 T01640010  RH  035%=      5-min Rain = 0
KGO1 161739Z 21010KT 17/01 A2997 RMK A01 T01650011  RH  035%=      5-min Rain = 0
KGO1 161740Z 21012KT 17/01 A2997 RMK A01 T01670011  RH  035%=      5-min Rain = 0
KGO1 161741Z 23012KT 17/01 A2997 RMK A01 T01680007  RH  034%=      5-min Rain = 0
KGO1 161742Z 24014KT 17/00 A2997 RMK A01 T01660004  RH  033%=      5-min Rain = 0
KGO1 161743Z 23014KT 17/01 A2997 RMK A01 T01650007  RH  034%=      5-min Rain = 0
KGO1 161744Z 22014KT 16/01 A2997 RMK A01 T01640006  RH  034%=      5-min Rain = 0
KGO1 161745Z 21013KT 16/01 A2997 RMK A01 T01630006  RH  034%=      5-min Rain = 0
KGO1 161746Z 22013KT 16/01 A2997 RMK A01 T01630008  RH  035%=      5-min Rain = 0
KGO1 161747Z 21010KT 16/01 A2997 RMK A01 T01630006  RH  034%=      5-min Rain = 0
KGO1 161748Z 23010KT 16/01 A2997 RMK A01 T01630008  RH  035%=      5-min Rain = 0
KGO1 161749Z 22014KT 17/01 A2997 RMK A01 T01660009  RH  035%=      5-min Rain = 0
KGO1 161750Z 23013KT 17/00 A2997 RMK A01 T01660002  RH  033%=      5-min Rain = 0
KGO1 161751Z 22011KT 17/01 A2997 RMK A01 T01650008  RH  035%=      5-min Rain = 0
KGO1 161752Z 23011KT 17/01 A2997 RMK A01 T01650013  RH  036%=      5-min Rain = 0
KGO1 161753Z 22011KT 17/01 A2997 RMK A01 T01670011  RH  035%=      5-min Rain = 0
KGO1 161754Z 23011KT 17/02 A2997 RMK A01 T01690020  RH  037%=      5-min Rain = 0
KGO1 161755Z 24014KT 17/01 A2997 RMK A01 T01710009  RH  034%=      5-min Rain = 0
KGO1 161756Z 24012KT 17/01 A2997 RMK A01 T01670005  RH  033%=      5-min Rain = 0
KGO1 161757Z 22010KT 17/01 A2997 RMK A01 T01660012  RH  035%=      5-min Rain = 0
KGO1 161758Z 21015KT 17/02 A2996 RMK A01 T01680016  RH  036%=      5-min Rain = 0
KGO1 161759Z 21013KT 17/01 A2997 RMK A01 T01680014  RH  035%=      5-min Rain = 0
KGO1 161800Z 22014KT 17/02 A2996 RMK A01 T01680015  RH  036%=      5-min Rain = 0
KGO1 161801Z 22014KT 17/01 A2996 RMK A01 T01680013  RH  035%=      5-min Rain = 0
KGO1 161802Z 23015KT 17/01 A2996 RMK A01 T01680011  RH  035%=      5-min Rain = 0
KGO1 161803Z 22017KT 17/01 A2996 RMK A01 T01670005  RH  033%=      5-min Rain = 0
KGO1 161804Z 22016KT 17/01 A2996 RMK A01 T01660006  RH  034%=      5-min Rain = 0
KGO1 161805Z 22016KT 17/01 A2996 RMK A01 T01650007  RH  034%=      5-min Rain = 0
KGO1 161806Z 21014KT 16/00 A2996 RMK A01 T01640004  RH  034%=      5-min Rain = 0
KGO1 161807Z 23014KT 17/02 A2996 RMK A01 T01660018  RH  037%=      5-min Rain = 0
KGO1 161808Z 24016KT 17/01 A2996 RMK A01 T01670011  RH  035%=      5-min Rain = 0
KGO1 161809Z 24015KT 17/01 A2996 RMK A01 T01670014  RH  036%=      5-min Rain = 0
KGO1 161810Z 24015KT 17/01 A2996 RMK A01 T01670012  RH  035%=      5-min Rain = 0
KGO1 161811Z 24014KT 17/01 A2996 RMK A01 T01670010  RH  035%=      5-min Rain = 0
KGO1 161812Z 22016KT 17/01 A2996 RMK A01 T01660010  RH  035%=      5-min Rain = 0
KGO1 161813Z 22013KT 17/01 A2996 RMK A01 T01660014  RH  036%=      5-min Rain = 0
KGO1 161814Z 21013KT 17/02 A2996 RMK A01 T01700018  RH  036%=      5-min Rain = 0
KGO1 161815Z 21016KT 17/01 A2996 RMK A01 T01720013  RH  034%=      5-min Rain = 0
KGO1 161816Z 22018KT 17/01 A2996 RMK A01 T01720009  RH  033%=      5-min Rain = 0
KGO1 161817Z 22014G20KT 17/01 A2996 RMK A01 T01680012  RH  035%=      5-min Rain = 0
KGO1 161818Z 22017KT 17/01 A2996 RMK A01 T01680012  RH  035%=      5-min Rain = 0
KGO1 161819Z 22018KT 17/01 A2995 RMK A01 T01680008  RH  034%=      5-min Rain = 0
KGO1 161820Z 23016KT 17/01 A2995 RMK A01 T01680009  RH  034%=      5-min Rain = 0
KGO1 161821Z 23015KT 17/01 A2995 RMK A01 T01670010  RH  035%=      5-min Rain = 0
KGO1 161822Z 23013KT 17/02 A2995 RMK A01 T01670015  RH  036%=      5-min Rain = 0
KGO1 161823Z 22015KT 17/02 A2995 RMK A01 T01700017  RH  036%=      5-min Rain = 0
KGO1 161824Z 22017KT 17/01 A2995 RMK A01 T01700013  RH  035%=      5-min Rain = 0
KGO1 161825Z 21018KT 17/01 A2995 RMK A01 T01680010  RH  034%=      5-min Rain = 0
KGO1 161826Z 22016G21KT 17/02 A2995 RMK A01 T01670017  RH  036%=      5-min Rain = 0
KGO1 161827Z 22019KT 17/01 A2995 RMK A01 T01700014  RH  035%=      5-min Rain = 0
KGO1 161828Z 22017KT 17/01 A2995 RMK A01 T01690011  RH  034%=      5-min Rain = 0
KGO1 161829Z 22015KT 17/01 A2995 RMK A01 T01670013  RH  035%=      5-min Rain = 0
KGO1 161830Z 22012KT 17/02 A2995 RMK A01 T01690017  RH  036%=      5-min Rain = 0
KGO1 161831Z 22013G18KT 17/02 A2995 RMK A01 T01710020  RH  036%=      5-min Rain = 0
KGO1 161832Z 22016KT 17/02 A2995 RMK A01 T01740020  RH  035%=      5-min Rain = 0
KGO1 161833Z 24013KT 17/01 A2995 RMK A01 T01730011  RH  034%=      5-min Rain = 0
KGO1 161834Z 23013KT 17/02 A2995 RMK A01 T01720018  RH  035%=      5-min Rain = 0
KGO1 161835Z 23015KT 17/02 A2995 RMK A01 T01730015  RH  034%=      5-min Rain = 0
KGO1 161836Z 23014G19KT 17/02 A2995 RMK A01 T01740016  RH  035%=      5-min Rain = 0
KGO1 161837Z 23013KT 17/01 A2995 RMK A01 T01730011  RH  033%=      5-min Rain = 0
KGO1 161838Z 24014KT 17/01 A2994 RMK A01 T01730013  RH  034%=      5-min Rain = 0
KGO1 161839Z 24014KT 17/02 A2994 RMK A01 T01740016  RH  035%=      5-min Rain = 0
KGO1 161840Z 23014KT 18/02 A2994 RMK A01 T01760016  RH  034%=      5-min Rain = 0
KGO1 161841Z 22012KT 18/02 A2994 RMK A01 T01760018  RH  035%=      5-min Rain = 0
KGO1 161842Z 20011KT 18/02 A2994 RMK A01 T01760016  RH  034%=      5-min Rain = 0
KGO1 161843Z 22012KT 18/02 A2994 RMK A01 T01760017  RH  034%=      5-min Rain = 0
KGO1 161844Z 23012KT 18/02 A2994 RMK A01 T01770017  RH  034%=      5-min Rain = 0
KGO1 161845Z 22013KT 18/02 A2994 RMK A01 T01770019  RH  035%=      5-min Rain = 0
KGO1 161846Z 22011KT 18/02 A2994 RMK A01 T01780017  RH  034%=      5-min Rain = 0
KGO1 161847Z 23008KT 18/02 A2994 RMK A01 T01770015  RH  034%=      5-min Rain = 0
KGO1 161848Z 23011KT 18/02 A2994 RMK A01 T01770015  RH  034%=      5-min Rain = 0
KGO1 161849Z 21014KT 18/02 A2994 RMK A01 T01780016  RH  034%=      5-min Rain = 0
KGO1 161850Z 22011KT 18/02 A2994 RMK A01 T01780017  RH  034%=      5-min Rain = 0
KGO1 161851Z 22008KT 18/01 A2994 RMK A01 T01780014  RH  033%=      5-min Rain = 0
KGO1 161852Z 21009KT 18/02 A2994 RMK A01 T01780017  RH  034%=      5-min Rain = 0
KGO1 161853Z 21009KT 18/03 A2993 RMK A01 T01810026  RH  035%=      5-min Rain = 0
KGO1 161854Z 21009KT 18/02 A2993 RMK A01 T01840021  RH  033%=      5-min Rain = 0
KGO1 161855Z 20009KT 19/02 A2993 RMK A01 T01850018  RH  033%=      5-min Rain = 0
KGO1 161856Z 21012KT 19/02 A2993 RMK A01 T01850017  RH  032%=      5-min Rain = 0
KGO1 161857Z 22012KT 19/02 A2993 RMK A01 T01850023  RH  034%=      5-min Rain = 0
KGO1 161858Z 22013KT 19/02 A2993 RMK A01 T01860022  RH  034%=      5-min Rain = 0
KGO1 161859Z 21012KT 19/02 A2993 RMK A01 T01860017  RH  032%=      5-min Rain = 0
KGO1 161900Z 20011KT 19/01 A2993 RMK A01 T01850007  RH  030%=      5-min Rain = 0
KGO1 161901Z 19008KT 19/00 A2993 RMK A01 T01850004  RH  030%=      5-min Rain = 0
KGO1 161902Z 20011KT 19/01 A2993 RMK A01 T01860008  RH  030%=      5-min Rain = 0
KGO1 161903Z 20013KT 19/01 A2993 RMK A01 T01860010  RH  030%=      5-min Rain = 0
KGO1 161904Z 20012KT 19/01 A2993 RMK A01 T01860006  RH  030%=      5-min Rain = 0
KGO1 161905Z 20012KT 19/01 A2993 RMK A01 T01850010  RH  031%=      5-min Rain = 0
KGO1 161906Z 21013KT 19/01 A2993 RMK A01 T01850009  RH  031%=      5-min Rain = 0
KGO1 161907Z 21012KT 19/01 A2993 RMK A01 T01850009  RH  031%=      5-min Rain = 0
KGO1 161908Z 21013KT 19/00 A2993 RMK A01 T01850004  RH  030%=      5-min Rain = 0
KGO1 161909Z 20014KT 19/01 A2992 RMK A01 T01850006  RH  030%=      5-min Rain = 0
KGO1 161910Z 20013KT 19/02 A2992 RMK A01 T01850017  RH  032%=      5-min Rain = 0
KGO1 161911Z 20012KT 19/01 A2992 RMK A01 T01860008  RH  030%=      5-min Rain = 0
KGO1 161912Z 19010KT 19/01 A2992 RMK A01 T01850013  RH  031%=      5-min Rain = 0
KGO1 161913Z 21010KT 19/01 A2992 RMK A01 T01860009  RH  031%=      5-min Rain = 0
KGO1 161914Z 19009KT 19/01 A2992 RMK A01 T01860011  RH  031%=      5-min Rain = 0
KGO1 161915Z 18012KT 19/01 A2992 RMK A01 T01880014  RH  031%=      5-min Rain = 0
KGO1 161916Z 20015KT 19/02 A2992 RMK A01 T01910019  RH  032%=      5-min Rain = 0
KGO1 161917Z 21015KT 19/01 A2992 RMK A01 T01930008  RH  029%=      5-min Rain = 0
KGO1 161918Z 23016KT 19/01 A2992 RMK A01 T01910009  RH  029%=      5-min Rain = 0
KGO1 161919Z 23012KT 19/01 A2992 RMK A01 T01890008  RH  030%=      5-min Rain = 0
KGO1 161920Z 24011KT 19/01 A2992 RMK A01 T01890013  RH  031%=      5-min Rain = 0
KGO1 161921Z 23010KT 19/01 A2992 RMK A01 T01900008  RH  029%=      5-min Rain = 0
KGO1 161922Z 22006KT 19/01 A2992 RMK A01 T01900006  RH  029%=      5-min Rain = 0
KGO1 161923Z 19009KT 19/01 A2992 RMK A01 T01910013  RH  030%=      5-min Rain = 0
KGO1 161924Z 20012KT 19/01 A2992 RMK A01 T01930009  RH  029%=      5-min Rain = 0
KGO1 161925Z 23013KT 19/M00 A2992 RMK A01 T01921002  RH  027%=      5-min Rain = 0
KGO1 161926Z 22012KT 19/M01 A2992 RMK A01 T01911005  RH  027%=      5-min Rain = 0
KGO1 161927Z 22011KT 19/00 A2992 RMK A01 T01890000  RH  028%=      5-min Rain = 0
KGO1 161928Z 21014KT 19/01 A2992 RMK A01 T01900008  RH  029%=      5-min Rain = 0
KGO1 161929Z 20013KT 19/00 A2992 RMK A01 T01920004  RH  028%=      5-min Rain = 0
KGO1 161930Z 22014KT 19/M00 A2992 RMK A01 T01891001  RH  028%=      5-min Rain = 0
KGO1 161931Z 21014KT 19/00 A2992 RMK A01 T01880002  RH  029%=      5-min Rain = 0
KGO1 161932Z 21012KT 19/01 A2992 RMK A01 T01880005  RH  029%=      5-min Rain = 0
KGO1 161933Z 22011KT 19/01 A2992 RMK A01 T01900008  RH  030%=      5-min Rain = 0
KGO1 161934Z 22013KT 19/00 A2991 RMK A01 T01900004  RH  029%=      5-min Rain = 0
KGO1 161935Z 23009KT 19/00 A2991 RMK A01 T01890004  RH  029%=      5-min Rain = 0
KGO1 161936Z 23011KT 19/01 A2991 RMK A01 T01900008  RH  030%=      5-min Rain = 0
KGO1 161937Z 22013G18KT 19/01 A2991 RMK A01 T01910008  RH  029%=      5-min Rain = 0
KGO1 161938Z 21014KT 19/00 A2991 RMK A01 T01920004  RH  028%=      5-min Rain = 0
KGO1 161939Z 19014KT 19/00 A2991 RMK A01 T01920001  RH  028%=      5-min Rain = 0
KGO1 161940Z 20015KT 19/M01 A2991 RMK A01 T01921006  RH  026%=      5-min Rain = 0
KGO1 161941Z 21015KT 19/M00 A2991 RMK A01 T01911004  RH  027%=      5-min Rain = 0
KGO1 161942Z 19014KT 19/M00 A2991 RMK A01 T01901003  RH  027%=      5-min Rain = 0
KGO1 161943Z 19015KT 19/00 A2991 RMK A01 T019000-0  RH  028%=      5-min Rain = 0
KGO1 161944Z 20016KT 19/00 A2991 RMK A01 T01900002  RH  028%=      5-min Rain = 0
KGO1 161945Z 20013KT 19/00 A2991 RMK A01 T01910001  RH  028%=      5-min Rain = 0
KGO1 161946Z 19015KT 19/01 A2991 RMK A01 T01920006  RH  029%=      5-min Rain = 0
KGO1 161947Z 19012KT 19/01 A2991 RMK A01 T01940005  RH  028%=      5-min Rain = 0
KGO1 161948Z 21015KT 19/M00 A2991 RMK A01 T01941003  RH  027%=      5-min Rain = 0
KGO1 161949Z 21014KT 19/M01 A2991 RMK A01 T01921009  RH  026%=      5-min Rain = 0
KGO1 161950Z 21014KT 19/M01 A2991 RMK A01 T01911007  RH  026%=      5-min Rain = 0
KGO1 161951Z 21016KT 19/M00 A2991 RMK A01 T01911002  RH  027%=      5-min Rain = 0
KGO1 161952Z 21013KT 19/M01 A2991 RMK A01 T01911005  RH  027%=      5-min Rain = 0
KGO1 161953Z 19012KT 19/M01 A2991 RMK A01 T01901012  RH  025%=      5-min Rain = 0
KGO1 161954Z 20014KT 19/M01 A2991 RMK A01 T01911006  RH  027%=      5-min Rain = 0
KGO1 161955Z 19012KT 19/M01 A299 RMK A01 T01921006  RH  026%=      5-min Rain = 0
KGO1 161956Z 19010KT 19/M02 A299 RMK A01 T01921016  RH  024%=      5-min Rain = 0
KGO1 161957Z 21014KT 19/M01 A299 RMK A01 T01921007  RH  026%=      5-min Rain = 0
KGO1 161958Z 20015KT 19/M01 A299 RMK A01 T01921005  RH  026%=      5-min Rain = 0
KGO1 161959Z 20013KT 19/M01 A299 RMK A01 T01931006  RH  026%=      5-min Rain = 0
KGO1 162000Z 20016KT 19/M01 A299 RMK A01 T01921005  RH  026%=      5-min Rain = 0
KGO1 162001Z 20014KT 19/M01 A299 RMK A01 T01901011  RH  026%=      5-min Rain = 0
KGO1 162002Z 20016KT 19/M01 A299 RMK A01 T01891011  RH  026%=      5-min Rain = 0
KGO1 162003Z 20014KT 19/M01 A299 RMK A01 T01901005  RH  027%=      5-min Rain = 0
KGO1 162004Z 20012KT 19/M01 A299 RMK A01 T01901006  RH  027%=      5-min Rain = 0
KGO1 162005Z 19013KT 19/M01 A299 RMK A01 T01911007  RH  026%=      5-min Rain = 0
KGO1 162006Z 20014KT 19/M01 A299 RMK A01 T01921013  RH  025%=      5-min Rain = 0
KGO1 162007Z 21012KT 19/M01 A299 RMK A01 T01911013  RH  025%=      5-min Rain = 0
KGO1 162008Z 21012KT 19/M01 A299 RMK A01 T01931009  RH  026%=      5-min Rain = 0
KGO1 162009Z 23013KT 19/M02 A299 RMK A01 T01941018  RH  024%=      5-min Rain = 0
KGO1 162010Z 22016KT 19/M01 A299 RMK A01 T01931013  RH  025%=      5-min Rain = 0
KGO1 162011Z 21013KT 19/M02 A299 RMK A01 T01921015  RH  025%=      5-min Rain = 0
KGO1 162012Z 20012KT 19/M01 A299 RMK A01 T01911012  RH  025%=      5-min Rain = 0
KGO1 162013Z 22012KT 19/M00 A299 RMK A01 T01921002  RH  027%=      5-min Rain = 0
KGO1 162014Z 22011KT 20/M00 A299 RMK A01 T01951004  RH  026%=      5-min Rain = 0
KGO1 162015Z 21010KT 19/M01 A299 RMK A01 T01941005  RH  026%=      5-min Rain = 0
KGO1 162016Z 22008KT 19/M01 A299 RMK A01 T01931010  RH  025%=      5-min Rain = 0
KGO1 162017Z 21007KT 19/M01 A299 RMK A01 T01921010  RH  025%=      5-min Rain = 0
KGO1 162018Z 23011KT 19/M01 A299 RMK A01 T01921006  RH  026%=      5-min Rain = 0
KGO1 162019Z 22010KT 19/M01 A2989 RMK A01 T01931006  RH  026%=      5-min Rain = 0
KGO1 162020Z 21009KT 19/M00 A2989 RMK A01 T01931004  RH  026%=      5-min Rain = 0
KGO1 162021Z 20012KT 20/00 A2989 RMK A01 T019500-0  RH  027%=      5-min Rain = 0
KGO1 162022Z 23011KT 20/M00 A2989 RMK A01 T01951001  RH  027%=      5-min Rain = 0
KGO1 162023Z 21014KT 20/00 A2989 RMK A01 T01960003  RH  027%=      5-min Rain = 0
KGO1 162024Z 20013KT 20/00 A2989 RMK A01 T01970002  RH  027%=      5-min Rain = 0
KGO1 162025Z 23011KT 20/01 A2989 RMK A01 T02000011  RH  028%=      5-min Rain = 0
KGO1 162026Z 24014KT 20/M00 A2989 RMK A01 T02011001  RH  026%=      5-min Rain = 0
KGO1 162027Z 23014KT 20/00 A2989 RMK A01 T01980000  RH  027%=      5-min Rain = 0
KGO1 162028Z 23012KT 20/M00 A2989 RMK A01 T01961003  RH  026%=      5-min Rain = 0
KGO1 162029Z 21010KT 19/M01 A2989 RMK A01 T01941010  RH  025%=      5-min Rain = 0
KGO1 162030Z 21010KT 19/M01 A2989 RMK A01 T01931006  RH  026%=      5-min Rain = 0
KGO1 162031Z 19012KT 19/M00 A2989 RMK A01 T01931004  RH  027%=      5-min Rain = 0
KGO1 162032Z 20013KT 19/M00 A2989 RMK A01 T01941002  RH  027%=      5-min Rain = 0
KGO1 162033Z 21012KT 19/M01 A2989 RMK A01 T01941005  RH  026%=      5-min Rain = 0
KGO1 162034Z 22012KT 19/M00 A2989 RMK A01 T01931003  RH  027%=      5-min Rain = 0
KGO1 162035Z 20011KT 19/M00 A2989 RMK A01 T01931002  RH  027%=      5-min Rain = 0
KGO1 162036Z 19012KT 20/00 A2989 RMK A01 T01950000  RH  027%=      5-min Rain = 0
KGO1 162037Z 18010KT 20/M01 A2989 RMK A01 T01951005  RH  026%=      5-min Rain = 0
KGO1 162038Z 18014KT 20/00 A2989 RMK A01 T01960004  RH  028%=      5-min Rain = 0
KGO1 162039Z 19015KT 20/00 A2989 RMK A01 T019700-0  RH  027%=      5-min Rain = 0
KGO1 162040Z 19012KT 20/M00 A2989 RMK A01 T01951004  RH  026%=      5-min Rain = 0
KGO1 162041Z 19013KT 19/M00 A2989 RMK A01 T01931001  RH  027%=      5-min Rain = 0
KGO1 162042Z 19013KT 19/M01 A2989 RMK A01 T01941005  RH  026%=      5-min Rain = 0
KGO1 162043Z 20013KT 19/M00 A2989 RMK A01 T01941004  RH  026%=      5-min Rain = 0
KGO1 162044Z 20011KT 19/00 A2989 RMK A01 T01940000  RH  027%=      5-min Rain = 0
KGO1 162045Z 20010KT 19/00 A2989 RMK A01 T01940004  RH  028%=      5-min Rain = 0
KGO1 162046Z 20012KT 20/01 A2989 RMK A01 T01960007  RH  028%=      5-min Rain = 0
KGO1 162047Z 21013KT 20/00 A2989 RMK A01 T01970001  RH  027%=      5-min Rain = 0
KGO1 162048Z 20010KT 20/01 A2989 RMK A01 T01970008  RH  028%=      5-min Rain = 0
KGO1 162049Z 21010KT 20/01 A2989 RMK A01 T01990011  RH  028%=      5-min Rain = 0
KGO1 162050Z 22009KT 20/00 A2989 RMK A01 T02000004  RH  027%=      5-min Rain = 0
KGO1 162051Z 23010KT 20/00 A2989 RMK A01 T02010004  RH  027%=      5-min Rain = 0
KGO1 162052Z 21015KT 20/01 A2988 RMK A01 T02010005  RH  027%=      5-min Rain = 0
KGO1 162053Z 23016KT 20/M01 A2989 RMK A01 T02011005  RH  025%=      5-min Rain = 0
KGO1 162054Z 23012KT 20/M01 A2989 RMK A01 T01981008  RH  025%=      5-min Rain = 0
KGO1 162055Z 21011G16KT 20/M01 A2989 RMK A01 T01961005  RH  026%=      5-min Rain = 0
KGO1 162056Z 22017KT 20/M01 A2988 RMK A01 T01961007  RH  026%=      5-min Rain = 0
KGO1 162057Z 22017KT 20/M01 A2988 RMK A01 T01951005  RH  026%=      5-min Rain = 0
KGO1 162058Z 22015KT 19/M01 A2988 RMK A01 T01941005  RH  026%=      5-min Rain = 0
KGO1 162059Z 21015KT 19/M00 A2988 RMK A01 T01941002  RH  027%=      5-min Rain = 0
KGO1 162100Z 21013KT 19/00 A2988 RMK A01 T019400-0  RH  027%=      5-min Rain = 0
KGO1 162101Z 21012KT 19/M00 A2988 RMK A01 T01931001  RH  027%=      5-min Rain = 0
KGO1 162102Z 21015KT 19/M00 A2988 RMK A01 T01931001  RH  027%=      5-min Rain = 0
KGO1 162103Z 22013KT 19/M01 A2988 RMK A01 T01941006  RH  026%=      5-min Rain = 0
KGO1 162104Z 21012KT 20/01 A2988 RMK A01 T01950005  RH  028%=      5-min Rain = 0
KGO1 162105Z 21011KT 20/M00 A2988 RMK A01 T01981002  RH  026%=      5-min Rain = 0
KGO1 162106Z 22013KT 20/M01 A2988 RMK A01 T01971008  RH  025%=      5-min Rain = 0
KGO1 162107Z 22011KT 20/M01 A2988 RMK A01 T01971005  RH  026%=      5-min Rain = 0
KGO1 162108Z 23012KT 20/M01 A2988 RMK A01 T01961011  RH  025%=      5-min Rain = 0
KGO1 162109Z 22013KT 20/M01 A2988 RMK A01 T01951006  RH  026%=      5-min Rain = 0
KGO1 162110Z 20015G20KT 20/00 A2988 RMK A01 T01970001  RH  027%=      5-min Rain = 0
KGO1 162111Z 20015KT 20/00 A2988 RMK A01 T019700-0  RH  027%=      5-min Rain = 0
KGO1 162112Z 19011KT 20/M00 A2988 RMK A01 T01961003  RH  026%=      5-min Rain = 0
KGO1 162113Z 19010KT 20/M00 A2988 RMK A01 T01951004  RH  026%=      5-min Rain = 0
KGO1 162114Z 20009KT 20/M00 A2988 RMK A01 T01961003  RH  026%=      5-min Rain = 0
KGO1 162115Z 21011KT 20/M00 A2988 RMK A01 T01971004  RH  026%=      5-min Rain = 0
KGO1 162116Z 21014G20KT 20/M01 A2988 RMK A01 T01981006  RH  025%=      5-min Rain = 0
KGO1 162117Z 21017KT 20/M01 A2988 RMK A01 T01991009  RH  025%=      5-min Rain = 0
KGO1 162118Z 21015KT 20/M00 A2988 RMK A01 T01971003  RH  026%=      5-min Rain = 0
KGO1 162119Z 21013KT 20/M00 A2988 RMK A01 T01961003  RH  026%=      5-min Rain = 0
KGO1 162120Z 19012KT 20/M01 A2988 RMK A01 T01961006  RH  026%=      5-min Rain = 0
KGO1 162121Z 19012KT 20/M01 A2988 RMK A01 T01961009  RH  025%=      5-min Rain = 0
KGO1 162122Z 20010G16KT 20/M01 A2988 RMK A01 T01961010  RH  025%=      5-min Rain = 0
KGO1 162123Z 20012KT 20/M01 A2988 RMK A01 T01951007  RH  026%=      5-min Rain = 0
KGO1 162124Z 20009KT 19/M00 A2988 RMK A01 T01941004  RH  026%=      5-min Rain = 0
KGO1 162125Z 20016KT 20/M00 A2988 RMK A01 T01961003  RH  026%=      5-min Rain = 0
KGO1 162126Z 20013KT 20/M01 A2988 RMK A01 T01961005  RH  026%=      5-min Rain = 0
KGO1 162127Z 21013KT 20/M01 A2988 RMK A01 T01951008  RH  025%=      5-min Rain = 0
KGO1 162128Z 21013KT 20/M01 A2988 RMK A01 T01951005  RH  026%=      5-min Rain = 0
KGO1 162129Z 20011KT 20/M00 A2988 RMK A01 T01951003  RH  027%=      5-min Rain = 0
KGO1 162130Z 21012KT 20/00 A2988 RMK A01 T019600-0  RH  027%=      5-min Rain = 0
KGO1 162131Z 22012KT 20/M00 A2988 RMK A01 T01971003  RH  026%=      5-min Rain = 0
KGO1 162132Z 22011KT 20/00 A2988 RMK A01 T019500-0  RH  027%=      5-min Rain = 0
KGO1 162133Z 20011KT 20/00 A2987 RMK A01 T01960004  RH  028%=      5-min Rain = 0
KGO1 162134Z 21009KT 20/00 A2987 RMK A01 T01960003  RH  027%=      5-min Rain = 0
KGO1 162135Z 20010KT 20/00 A2987 RMK A01 T01960004  RH  028%=      5-min Rain = 0
KGO1 162136Z 20008G13KT 20/M00 A2987 RMK A01 T01961001  RH  027%=      5-min Rain = 0
KGO1 162137Z 21010KT 19/00 A2987 RMK A01 T01940002  RH  028%=      5-min Rain = 0
KGO1 162138Z 20012G17KT 20/01 A2987 RMK A01 T01950005  RH  028%=      5-min Rain = 0
KGO1 162139Z 20015KT 20/01 A2987 RMK A01 T01960008  RH  028%=      5-min Rain = 0
KGO1 162140Z 20015KT 20/01 A2987 RMK A01 T01960006  RH  028%=      5-min Rain = 0
KGO1 162141Z 21013KT 20/01 A2987 RMK A01 T01960007  RH  028%=      5-min Rain = 0
KGO1 162142Z 20012KT 20/01 A2987 RMK A01 T01960005  RH  028%=      5-min Rain = 0
KGO1 162143Z 19011KT 20/01 A2987 RMK A01 T01950006  RH  028%=      5-min Rain = 0
KGO1 162144Z 19011KT 20/00 A2987 RMK A01 T01960004  RH  028%=      5-min Rain = 0
KGO1 162145Z 20011KT 20/01 A2987 RMK A01 T01970007  RH  028%=      5-min Rain = 0
KGO1 162146Z 21011KT 20/01 A2987 RMK A01 T01980006  RH  028%=      5-min Rain = 0
KGO1 162147Z 21012KT 20/01 A2987 RMK A01 T01990006  RH  028%=      5-min Rain = 0
KGO1 162148Z 20012KT 20/01 A2987 RMK A01 T01990007  RH  028%=      5-min Rain = 0
KGO1 162149Z 19013KT 20/01 A2987 RMK A01 T02000007  RH  028%=      5-min Rain = 0
KGO1 162150Z 19015KT 20/00 A2987 RMK A01 T01990001  RH  027%=      5-min Rain = 0
KGO1 162151Z 18016KT 20/00 A2986 RMK A01 T01980001  RH  027%=      5-min Rain = 0
KGO1 162152Z 19015KT 20/M00 A2986 RMK A01 T01961002  RH  026%=      5-min Rain = 0
KGO1 162153Z 20014KT 20/M00 A2986 RMK A01 T01951002  RH  027%=      5-min Rain = 0
KGO1 162154Z 20013KT 19/M00 A2986 RMK A01 T01941003  RH  027%=      5-min Rain = 0
KGO1 162155Z 20013KT 20/00 A2987 RMK A01 T01950003  RH  028%=      5-min Rain = 0
KGO1 162156Z 20014KT 20/00 A2986 RMK A01 T01970002  RH  027%=      5-min Rain = 0
KGO1 162157Z 19013KT 20/00 A2986 RMK A01 T01970001  RH  027%=      5-min Rain = 0
KGO1 162158Z 19012KT 20/M00 A2986 RMK A01 T01961001  RH  027%=      5-min Rain = 0
KGO1 162159Z 18012KT 20/00 A2986 RMK A01 T01960004  RH  028%=      5-min Rain = 0
KGO1 162200Z 19014KT 20/01 A2986 RMK A01 T01970006  RH  028%=      5-min Rain = 0
KGO1 162201Z 19013KT 20/01 A2986 RMK A01 T01980005  RH  027%=      5-min Rain = 0
KGO1 162202Z 19012KT 20/M00 A2986 RMK A01 T01971003  RH  026%=      5-min Rain = 0
KGO1 162203Z 18012KT 20/00 A2986 RMK A01 T01960001  RH  027%=      5-min Rain = 0
KGO1 162204Z 19012KT 20/00 A2986 RMK A01 T019600-0  RH  027%=      5-min Rain = 0
KGO1 162205Z 19013KT 20/00 A2986 RMK A01 T01950004  RH  028%=      5-min Rain = 0
KGO1 162206Z 18014KT 20/01 A2986 RMK A01 T01960008  RH  028%=      5-min Rain = 0
KGO1 162207Z 19012KT 20/00 A2986 RMK A01 T01960001  RH  027%=      5-min Rain = 0
KGO1 162208Z 20011KT 20/01 A2986 RMK A01 T01950006  RH  028%=      5-min Rain = 0
KGO1 162209Z 18011KT 19/01 A2986 RMK A01 T01940008  RH  029%=      5-min Rain = 0
KGO1 162210Z 19014KT 20/01 A2986 RMK A01 T01950009  RH  029%=      5-min Rain = 0
KGO1 162211Z 19014KT 19/01 A2986 RMK A01 T01940005  RH  028%=      5-min Rain = 0
KGO1 162212Z 20013KT 19/01 A2986 RMK A01 T01940007  RH  029%=      5-min Rain = 0
KGO1 162213Z 21012KT 19/00 A2986 RMK A01 T01940003  RH  028%=      5-min Rain = 0
KGO1 162214Z 20011KT 19/01 A2986 RMK A01 T01940005  RH  028%=      5-min Rain = 0
KGO1 162215Z 20010KT 19/01 A2986 RMK A01 T01940006  RH  028%=      5-min Rain = 0
KGO1 162216Z 21008KT 19/01 A2986 RMK A01 T01940007  RH  028%=      5-min Rain = 0
KGO1 162217Z 22010G15KT 20/01 A2986 RMK A01 T01960011  RH  029%=      5-min Rain = 0
KGO1 162218Z 21012KT 20/01 A2986 RMK A01 T01970009  RH  028%=      5-min Rain = 0
KGO1 162219Z 20015KT 20/00 A2986 RMK A01 T01970002  RH  027%=      5-min Rain = 0
KGO1 162220Z 20012KT 20/00 A2986 RMK A01 T01950003  RH  027%=      5-min Rain = 0
KGO1 162221Z 20013KT 19/00 A2986 RMK A01 T01940004  RH  028%=      5-min Rain = 0
KGO1 162222Z 20014KT 19/01 A2986 RMK A01 T01930007  RH  029%=      5-min Rain = 0
KGO1 162223Z 21015KT 19/01 A2986 RMK A01 T01930009  RH  029%=      5-min Rain = 0
KGO1 162224Z 20014KT 19/01 A2986 RMK A01 T01930010  RH  029%=      5-min Rain = 0
KGO1 162225Z 20013KT 19/01 A2986 RMK A01 T01920009  RH  029%=      5-min Rain = 0
KGO1 162226Z 19014KT 19/01 A2986 RMK A01 T01910009  RH  030%=      5-min Rain = 0
KGO1 162227Z 18014KT 19/01 A2986 RMK A01 T01900011  RH  030%=      5-min Rain = 0
KGO1 162228Z 19015KT 19/01 A2986 RMK A01 T01910011  RH  030%=      5-min Rain = 0
KGO1 162229Z 21017KT 19/01 A2986 RMK A01 T01900013  RH  030%=      5-min Rain = 0
KGO1 162230Z 20016KT 19/01 A2986 RMK A01 T01890011  RH  030%=      5-min Rain = 0
KGO1 162231Z 20015KT 19/01 A2986 RMK A01 T01880011  RH  031%=      5-min Rain = 0
KGO1 162232Z 19015KT 19/01 A2986 RMK A01 T01880011  RH  031%=      5-min Rain = 0
KGO1 162233Z 19015KT 19/01 A2986 RMK A01 T01870012  RH  031%=      5-min Rain = 0
KGO1 162234Z 20013KT 19/01 A2986 RMK A01 T01870012  RH  031%=      5-min Rain = 0
KGO1 162235Z 20015KT 19/01 A2986 RMK A01 T01870012  RH  031%=      5-min Rain = 0
KGO1 162236Z 20016KT 19/01 A2986 RMK A01 T01870009  RH  030%=      5-min Rain = 0
KGO1 162237Z 20014KT 19/01 A2986 RMK A01 T01860011  RH  031%=      5-min Rain = 0
KGO1 162238Z 20015KT 19/01 A2986 RMK A01 T01870011  RH  031%=      5-min Rain = 0
KGO1 162239Z 20016KT 19/01 A2986 RMK A01 T01860010  RH  031%=      5-min Rain = 0
KGO1 162240Z 19013KT 19/01 A2986 RMK A01 T01850011  RH  031%=      5-min Rain = 0
KGO1 162241Z 18014KT 19/01 A2986 RMK A01 T01850013  RH  031%=      5-min Rain = 0
KGO1 162242Z 19013KT 19/01 A2986 RMK A01 T01850013  RH  031%=      5-min Rain = 0
KGO1 162243Z 19013KT 19/01 A2986 RMK A01 T01860013  RH  031%=      5-min Rain = 0
KGO1 162244Z 20013KT 19/01 A2986 RMK A01 T01860012  RH  031%=      5-min Rain = 0
KGO1 162245Z 20017KT 19/01 A2986 RMK A01 T01850009  RH  031%=      5-min Rain = 0
KGO1 162246Z 20015KT 18/01 A2986 RMK A01 T01840010  RH  031%=      5-min Rain = 0
KGO1 162247Z 20013KT 18/01 A2986 RMK A01 T01830010  RH  031%=      5-min Rain = 0
KGO1 162248Z 20014KT 18/01 A2986 RMK A01 T01830011  RH  032%=      5-min Rain = 0
KGO1 162249Z 19013KT 18/01 A2986 RMK A01 T01830013  RH  032%=      5-min Rain = 0
KGO1 162250Z 20014KT 18/01 A2986 RMK A01 T01830008  RH  031%=      5-min Rain = 0
KGO1 162251Z 19014KT 18/01 A2986 RMK A01 T01820007  RH  031%=      5-min Rain = 0
KGO1 162252Z 19013KT 18/01 A2986 RMK A01 T01800009  RH  032%=      5-min Rain = 0
KGO1 162253Z 19014KT 18/01 A2986 RMK A01 T01780008  RH  032%=      5-min Rain = 0
KGO1 162254Z 19012KT 18/01 A2986 RMK A01 T01760006  RH  032%=      5-min Rain = 0
KGO1 162255Z 19011KT 18/01 A2986 RMK A01 T01760010  RH  033%=      5-min Rain = 0
KGO1 162256Z 19012KT 18/01 A2986 RMK A01 T01770009  RH  032%=      5-min Rain = 0
KGO1 162257Z 19013KT 18/01 A2986 RMK A01 T01780007  RH  032%=      5-min Rain = 0
KGO1 162258Z 19012KT 18/01 A2986 RMK A01 T01790007  RH  032%=      5-min Rain = 0
KGO1 162259Z 20011KT 18/01 A2986 RMK A01 T01790008  RH  032%=      5-min Rain = 0
KGO1 162300Z 20010KT 18/01 A2986 RMK A01 T01800006  RH  031%=      5-min Rain = 0
KGO1 162301Z 20008KT 18/01 A2986 RMK A01 T01810009  RH  032%=      5-min Rain = 0
KGO1 162302Z 19008KT 18/01 A2986 RMK A01 T01820012  RH  032%=      5-min Rain = 0
KGO1 162303Z 20010KT 18/01 A2986 RMK A01 T01830006  RH  030%=      5-min Rain = 0
KGO1 162304Z 20010KT 18/01 A2986 RMK A01 T01830005  RH  030%=      5-min Rain = 0
KGO1 162305Z 20011KT 18/01 A2986 RMK A01 T01830008  RH  031%=      5-min Rain = 0
KGO1 162306Z 20012KT 18/00 A2986 RMK A01 T01830002  RH  030%=      5-min Rain = 0
KGO1 162307Z 19015KT 18/M00 A2986 RMK A01 T01831004  RH  028%=      5-min Rain = 0
KGO1 162308Z 20015KT 18/M00 A2986 RMK A01 T01831004  RH  028%=      5-min Rain = 0
KGO1 162309Z 20015KT 18/M00 A2986 RMK A01 T01821002  RH  029%=      5-min Rain = 0
KGO1 162310Z 20015KT 18/M00 A2986 RMK A01 T01821001  RH  029%=      5-min Rain = 0
KGO1 162311Z 20015KT 18/M00 A2986 RMK A01 T01811002  RH  029%=      5-min Rain = 0
KGO1 162312Z 20013KT 18/M00 A2986 RMK A01 T01811004  RH  029%=      5-min Rain = 0
KGO1 162313Z 20013KT 18/M01 A2986 RMK A01 T01801007  RH  028%=      5-min Rain = 0
KGO1 162314Z 19011KT 18/M01 A2986 RMK A01 T01801005  RH  029%=      5-min Rain = 0
KGO1 162315Z 20011KT 18/M00 A2986 RMK A01 T01791004  RH  029%=      5-min Rain = 0
KGO1 162316Z 20013KT 18/M00 A2986 RMK A01 T01791002  RH  030%=      5-min Rain = 0
KGO1 162317Z 20015KT 18/00 A2986 RMK A01 T01780002  RH  030%=      5-min Rain = 0
KGO1 162318Z 21016KT 18/00 A2986 RMK A01 T01770004  RH  031%=      5-min Rain = 0
KGO1 162319Z 20014KT 18/01 A2986 RMK A01 T01770007  RH  032%=      5-min Rain = 0
KGO1 162320Z 19015KT 18/01 A2986 RMK A01 T01770008  RH  032%=      5-min Rain = 0
KGO1 162321Z 19013KT 18/01 A2986 RMK A01 T01770008  RH  032%=      5-min Rain = 0
KGO1 162322Z 19015KT 18/01 A2986 RMK A01 T01770007  RH  032%=      5-min Rain = 0
KGO1 162323Z 19015KT 18/00 A2986 RMK A01 T01770004  RH  031%=      5-min Rain = 0
KGO1 162324Z 19013KT 18/00 A2986 RMK A01 T01770004  RH  031%=      5-min Rain = 0
KGO1 162325Z 18013KT 18/01 A2986 RMK A01 T01770006  RH  032%=      5-min Rain = 0
KGO1 162326Z 19011KT 18/01 A2986 RMK A01 T01770009  RH  032%=      5-min Rain = 0
KGO1 162327Z 19014KT 18/01 A2986 RMK A01 T01770008  RH  032%=      5-min Rain = 0
KGO1 162328Z 19012KT 18/01 A2986 RMK A01 T01770006  RH  031%=      5-min Rain = 0
KGO1 162329Z 20012KT 18/01 A2986 RMK A01 T01770009  RH  032%=      5-min Rain = 0
KGO1 162330Z 20014KT 18/01 A2986 RMK A01 T01770007  RH  032%=      5-min Rain = 0
KGO1 162331Z 20014KT 18/01 A2986 RMK A01 T01760005  RH  031%=      5-min Rain = 0
KGO1 162332Z 20012KT 18/01 A2986 RMK A01 T01760007  RH  032%=      5-min Rain = 0
KGO1 162333Z 20013KT 18/01 A2986 RMK A01 T01750006  RH  032%=      5-min Rain = 0
KGO1 162334Z 19014KT 18/01 A2986 RMK A01 T01750005  RH  032%=      5-min Rain = 0
KGO1 162335Z 20014KT 17/01 A2986 RMK A01 T01740006  RH  032%=      5-min Rain = 0
KGO1 162336Z 19014KT 17/01 A2986 RMK A01 T01740006  RH  032%=      5-min Rain = 0
KGO1 162337Z 20014KT 17/00 A2986 RMK A01 T01740003  RH  032%=      5-min Rain = 0
KGO1 162338Z 20013KT 17/00 A2986 RMK A01 T01730003  RH  032%=      5-min Rain = 0
KGO1 162339Z 20014KT 17/00 A2986 RMK A01 T01730004  RH  032%=      5-min Rain = 0
KGO1 162340Z 20013KT 17/00 A2986 RMK A01 T01720004  RH  032%=      5-min Rain = 0
KGO1 162341Z 20015KT 17/01 A2986 RMK A01 T01720005  RH  032%=      5-min Rain = 0
KGO1 162342Z 21014KT 17/00 A2986 RMK A01 T01720003  RH  032%=      5-min Rain = 0
KGO1 162343Z 21014KT 17/00 A2986 RMK A01 T01710002  RH  032%=      5-min Rain = 0
KGO1 162344Z 21013KT 17/00 A2986 RMK A01 T01710003  RH  032%=      5-min Rain = 0
KGO1 162345Z 21011KT 17/01 A2986 RMK A01 T01680007  RH  034%=      5-min Rain = 0
KGO1 162346Z 21011KT 16/01 A2986 RMK A01 T01640009  RH  035%=      5-min Rain = 0
KGO1 162347Z 21013KT 16/00 A2985 RMK A01 T01620003  RH  034%=      5-min Rain = 0
KGO1 162348Z 21014KT 16/00 A2985 RMK A01 T01620003  RH  034%=      5-min Rain = 0
KGO1 162349Z 21013KT 16/00 A2985 RMK A01 T01610003  RH  034%=      5-min Rain = 0
KGO1 162350Z 21013KT 16/01 A2985 RMK A01 T01610005  RH  035%=      5-min Rain = 0
KGO1 162351Z 21013KT 16/00 A2985 RMK A01 T01590003  RH  035%=      5-min Rain = 0
KGO1 162352Z 21012KT 16/00 A2985 RMK A01 T01590004  RH  035%=      5-min Rain = 0
KGO1 162353Z 21014KT 16/00 A2985 RMK A01 T01570003  RH  035%=      5-min Rain = 0
KGO1 162354Z 21013KT 16/00 A2985 RMK A01 T01570002  RH  035%=      5-min Rain = 0
KGO1 162355Z 21013KT 16/00 A2985 RMK A01 T01580001  RH  034%=      5-min Rain = 0
KGO1 162356Z 21013KT 16/00 A2985 RMK A01 T015800-0  RH  034%=      5-min Rain = 0
KGO1 162357Z 21013KT 16/00 A2985 RMK A01 T01580000  RH  034%=      5-min Rain = 0
KGO1 162358Z 21012KT 16/00 A2985 RMK A01 T01580001  RH  034%=      5-min Rain = 0
KGO1 162359Z 21010KT 16/00 A2985 RMK A01 T01570003  RH  035%=      5-min Rain = 0
KGO1 170000Z 21011KT 16/01 A2985 RMK A01 T01550005  RH  036%=      5-min Rain = 0
KGO1 170001Z 21011KT 16/00 A2985 RMK A01 T01550003  RH  035%=      5-min Rain = 0
KGO1 170002Z 21011KT 15/00 A2985 RMK A01 T01540004  RH  036%=      5-min Rain = 0
KGO1 170003Z 21014KT 15/00 A2985 RMK A01 T01530003  RH  036%=      5-min Rain = 0
KGO1 170004Z 21013KT 15/00 A2985 RMK A01 T01530000  RH  035%=      5-min Rain = 0
KGO1 170005Z 21012KT 15/00 A2985 RMK A01 T01530002  RH  036%=      5-min Rain = 0
KGO1 170006Z 21012KT 15/00 A2985 RMK A01 T01530002  RH  036%=      5-min Rain = 0
KGO1 170007Z 21011KT 15/00 A2985 RMK A01 T01510004  RH  037%=      5-min Rain = 0
KGO1 170008Z 21012KT 15/00 A2985 RMK A01 T01490002  RH  037%=      5-min Rain = 0
KGO1 170009Z 21012KT 15/00 A2985 RMK A01 T01490002  RH  037%=      5-min Rain = 0
KGO1 170010Z 21011KT 15/00 A2985 RMK A01 T01490003  RH  037%=      5-min Rain = 0
KGO1 170011Z 21012KT 15/00 A2985 RMK A01 T01480002  RH  037%=      5-min Rain = 0
KGO1 170012Z 21010KT 15/00 A2985 RMK A01 T01480003  RH  037%=      5-min Rain = 0
KGO1 170013Z 20011KT 15/00 A2985 RMK A01 T01450004  RH  038%=      5-min Rain = 0
KGO1 170014Z 21010KT 14/00 A2985 RMK A01 T01440003  RH  038%=      5-min Rain = 0
KGO1 170015Z 20010KT 14/00 A2985 RMK A01 T01440002  RH  038%=      5-min Rain = 0
KGO1 170016Z 20009KT 14/00 A2985 RMK A01 T01430003  RH  038%=      5-min Rain = 0
KGO1 170017Z 20009KT 14/00 A2985 RMK A01 T01410004  RH  039%=      5-min Rain = 0
KGO1 170018Z 20009KT 14/00 A2985 RMK A01 T01390003  RH  039%=      5-min Rain = 0
KGO1 170019Z 20008KT 14/00 A2985 RMK A01 T01380002  RH  039%=      5-min Rain = 0
KGO1 170020Z 20009KT 14/00 A2985 RMK A01 T01380004  RH  040%=      5-min Rain = 0
KGO1 170021Z 20009KT 14/00 A2985 RMK A01 T01360004  RH  040%=      5-min Rain = 0
KGO1 170022Z 20008KT 13/00 A2985 RMK A01 T01340004  RH  041%=      5-min Rain = 0
KGO1 170023Z 20009KT 13/00 A2985 RMK A01 T01330004  RH  041%=      5-min Rain = 0
KGO1 170024Z 20008KT 13/00 A2985 RMK A01 T01320004  RH  042%=      5-min Rain = 0
KGO1 170025Z 20008KT 13/00 A2985 RMK A01 T01320004  RH  042%=      5-min Rain = 0
KGO1 170026Z 20008KT 13/00 A2985 RMK A01 T01310004  RH  042%=      5-min Rain = 0
KGO1 170027Z 20007KT 13/01 A2985 RMK A01 T01290005  RH  043%=      5-min Rain = 0
KGO1 170028Z 20007KT 13/01 A2985 RMK A01 T01270006  RH  044%=      5-min Rain = 0
KGO1 170029Z 20007KT 13/01 A2985 RMK A01 T01250006  RH  044%=      5-min Rain = 0
KGO1 170030Z 19007KT 12/01 A2985 RMK A01 T01240006  RH  045%=      5-min Rain = 0
KGO1 170031Z 20007KT 12/01 A2985 RMK A01 T01220007  RH  045%=      5-min Rain = 0
KGO1 170032Z 19007KT 12/01 A2985 RMK A01 T01210006  RH  045%=      5-min Rain = 0
KGO1 170033Z 20007KT 12/01 A2985 RMK A01 T01200006  RH  046%=      5-min Rain = 0
KGO1 170034Z 20007KT 12/01 A2985 RMK A01 T01170006  RH  046%=      5-min Rain = 0
KGO1 170035Z 20006KT 12/01 A2985 RMK A01 T01160006  RH  047%=      5-min Rain = 0
KGO1 170036Z 20006KT 12/01 A2985 RMK A01 T01150005  RH  047%=      5-min Rain = 0
KGO1 170037Z 19006KT 11/00 A2985 RMK A01 T01140004  RH  047%=      5-min Rain = 0
KGO1 170038Z 20006KT 11/00 A2985 RMK A01 T01130004  RH  047%=      5-min Rain = 0
KGO1 170039Z 19006KT 11/01 A2985 RMK A01 T01120006  RH  048%=      5-min Rain = 0
KGO1 170040Z 19006KT 11/00 A2985 RMK A01 T01100004  RH  048%=      5-min Rain = 0
KGO1 170041Z 19006KT 11/01 A2985 RMK A01 T01080005  RH  049%=      5-min Rain = 0
KGO1 170042Z 20006KT 11/01 A2985 RMK A01 T01060005  RH  050%=      5-min Rain = 0
KGO1 170043Z 20005KT 10/01 A2985 RMK A01 T01040005  RH  050%=      5-min Rain = 0
KGO1 170044Z 20005KT 10/00 A2985 RMK A01 T01040004  RH  050%=      5-min Rain = 0
KGO1 170045Z 20006KT 10/00 A2985 RMK A01 T01040004  RH  050%=      5-min Rain = 0
KGO1 170046Z 21006KT 10/01 A2985 RMK A01 T01030005  RH  051%=      5-min Rain = 0
KGO1 170047Z 21006KT 10/01 A2985 RMK A01 T01030005  RH  051%=      5-min Rain = 0
KGO1 170048Z 22007KT 10/01 A2985 RMK A01 T01030005  RH  051%=      5-min Rain = 0
KGO1 170049Z 22007KT 10/00 A2985 RMK A01 T01030003  RH  050%=      5-min Rain = 0
KGO1 170050Z 22007KT 10/00 A2985 RMK A01 T01030003  RH  050%=      5-min Rain = 0
KGO1 170051Z 22006KT 10/00 A2985 RMK A01 T01010004  RH  051%=      5-min Rain = 0
KGO1 170052Z 22006KT 10/01 A2985 RMK A01 T00980006  RH  053%=      5-min Rain = 0
KGO1 170053Z 22005KT 10/01 A2985 RMK A01 T00950010  RH  055%=      5-min Rain = 0
KGO1 170054Z 22005KT 09/01 A2985 RMK A01 T00930012  RH  057%=      5-min Rain = 0
KGO1 170055Z 23004KT 09/01 A2985 RMK A01 T00930009  RH  056%=      5-min Rain = 0
KGO1 170056Z 23004KT 09/01 A2985 RMK A01 T00930007  RH  055%=      5-min Rain = 0
KGO1 170057Z 22004KT 09/00 A2985 RMK A01 T00920004  RH  054%=      5-min Rain = 0
KGO1 170058Z 22005KT 09/01 A2985 RMK A01 T00900005  RH  055%=      5-min Rain = 0
KGO1 170059Z 21005KT 09/01 A2985 RMK A01 T00880005  RH  056%=      5-min Rain = 0
KGO1 170100Z 21004KT 09/01 A2985 RMK A01 T00870006  RH  057%=      5-min Rain = 0
KGO1 170101Z 21005KT 09/01 A2985 RMK A01 T00860007  RH  057%=      5-min Rain = 0
KGO1 170102Z 21006KT 09/01 A2985 RMK A01 T00850006  RH  057%=      5-min Rain = 0
KGO1 170103Z 21007KT 09/01 A2985 RMK A01 T00850005  RH  057%=      5-min Rain = 0
KGO1 170104Z 21007KT 09/00 A2985 RMK A01 T00850004  RH  057%=      5-min Rain = 0
KGO1 170105Z 22008KT 09/00 A2985 RMK A01 T00860003  RH  056%=      5-min Rain = 0
KGO1 170106Z 22008KT 09/00 A2985 RMK A01 T00880003  RH  055%=      5-min Rain = 0
KGO1 170107Z 22008KT 09/00 A2985 RMK A01 T00920003  RH  054%=      5-min Rain = 0
KGO1 170108Z 22008KT 10/00 A2985 RMK A01 T00950004  RH  053%=      5-min Rain = 0
KGO1 170109Z 22007KT 10/01 A2985 RMK A01 T00950006  RH  054%=      5-min Rain = 0
KGO1 170110Z 22006KT 09/01 A2985 RMK A01 T00900007  RH  056%=      5-min Rain = 0
KGO1 170111Z 22006KT 08/00 A2985 RMK A01 T00810004  RH  058%=      5-min Rain = 0
KGO1 170112Z 22007KT 08/00 A2985 RMK A01 T00760002  RH  060%=      5-min Rain = 0
KGO1 170113Z 22007KT 07/00 A2985 RMK A01 T00730002  RH  061%=      5-min Rain = 0
KGO1 170114Z 22007KT 07/00 A2985 RMK A01 T00720002  RH  061%=      5-min Rain = 0
KGO1 170115Z 22007KT 07/00 A2985 RMK A01 T00720004  RH  062%=      5-min Rain = 0
KGO1 170116Z 21007KT 07/00 A2985 RMK A01 T00720003  RH  062%=      5-min Rain = 0
KGO1 170117Z 21006KT 07/00 A2985 RMK A01 T00730004  RH  061%=      5-min Rain = 0
KGO1 170118Z 20005KT 07/01 A2985 RMK A01 T00730005  RH  062%=      5-min Rain = 0
KGO1 170119Z 20004KT 07/01 A2985 RMK A01 T00720006  RH  063%=      5-min Rain = 0
KGO1 170120Z 20003KT 07/01 A2985 RMK A01 T00700009  RH  065%=      5-min Rain = 0
KGO1 170121Z 19003KT 07/01 A2985 RMK A01 T00690006  RH  064%=      5-min Rain = 0
KGO1 170122Z 20005KT 07/00 A2985 RMK A01 T00710002  RH  061%=      5-min Rain = 0
KGO1 170123Z 20005KT 07/00 A2985 RMK A01 T00740002  RH  060%=      5-min Rain = 0
KGO1 170124Z 20005KT 08/00 A2985 RMK A01 T00770001  RH  058%=      5-min Rain = 0
KGO1 170125Z 21005KT 08/00 A2985 RMK A01 T00800001  RH  057%=      5-min Rain = 0
KGO1 170126Z 20006KT 08/00 A2985 RMK A01 T00830002  RH  057%=      5-min Rain = 0
KGO1 170127Z 21006KT 09/00 A2985 RMK A01 T00860003  RH  056%=      5-min Rain = 0
KGO1 170128Z 21006KT 09/00 A2985 RMK A01 T00870003  RH  056%=      5-min Rain = 0
KGO1 170129Z 21006KT 09/00 A2985 RMK A01 T00870003  RH  055%=      5-min Rain = 0
KGO1 170130Z 20006KT 09/00 A2985 RMK A01 T00880002  RH  055%=      5-min Rain = 0
KGO1 170131Z 21006KT 09/00 A2985 RMK A01 T00890002  RH  054%=      5-min Rain = 0
KGO1 170132Z 21006KT 09/00 A2985 RMK A01 T00900003  RH  055%=      5-min Rain = 0
KGO1 170133Z 20006KT 09/00 A2985 RMK A01 T00890004  RH  055%=      5-min Rain = 0
KGO1 170134Z 20006KT 09/00 A2985 RMK A01 T00880003  RH  055%=      5-min Rain = 0
KGO1 170135Z 20006KT 09/00 A2985 RMK A01 T00880001  RH  054%=      5-min Rain = 0
KGO1 170136Z 20006KT 09/00 A2985 RMK A01 T00890002  RH  054%=      5-min Rain = 0
KGO1 170137Z 19007KT 09/00 A2985 RMK A01 T00880004  RH  056%=      5-min Rain = 0
KGO1 170138Z 19007KT 09/00 A2985 RMK A01 T00850002  RH  056%=      5-min Rain = 0
KGO1 170139Z 19008KT 09/00 A2985 RMK A01 T00870001  RH  055%=      5-min Rain = 0
KGO1 170140Z 19008KT 09/00 A2985 RMK A01 T00900002  RH  054%=      5-min Rain = 0
KGO1 170141Z 19008KT 09/00 A2986 RMK A01 T00890004  RH  055%=      5-min Rain = 0
KGO1 170142Z 20008KT 09/01 A2986 RMK A01 T00850005  RH  057%=      5-min Rain = 0
KGO1 170143Z 20008KT 08/01 A2986 RMK A01 T00830005  RH  058%=      5-min Rain = 0
KGO1 170144Z 20008KT 08/01 A2986 RMK A01 T00830005  RH  058%=      5-min Rain = 0
KGO1 170145Z 20008KT 09/01 A2986 RMK A01 T00850005  RH  057%=      5-min Rain = 0
KGO1 170146Z 19008KT 09/01 A2986 RMK A01 T00880005  RH  056%=      5-min Rain = 0
KGO1 170147Z 19007KT 09/01 A2986 RMK A01 T00900006  RH  056%=      5-min Rain = 0
KGO1 170148Z 19007KT 09/01 A2986 RMK A01 T00910006  RH  055%=      5-min Rain = 0
KGO1 170149Z 19007KT 09/01 A2986 RMK A01 T00920007  RH  055%=      5-min Rain = 0
KGO1 170150Z 19006KT 09/01 A2986 RMK A01 T00910007  RH  055%=      5-min Rain = 0
KGO1 170151Z 19006KT 09/01 A2986 RMK A01 T00910007  RH  055%=      5-min Rain = 0
KGO1 170152Z 19005KT 09/01 A2985 RMK A01 T00910007  RH  056%=      5-min Rain = 0
KGO1 170153Z 19005KT 09/01 A2986 RMK A01 T00900007  RH  056%=      5-min Rain = 0
KGO1 170154Z 19006KT 09/01 A2986 RMK A01 T00900006  RH  056%=      5-min Rain = 0
KGO1 170155Z 19005KT 09/00 A2985 RMK A01 T00920004  RH  054%=      5-min Rain = 0
KGO1 170156Z 19005KT 09/00 A2985 RMK A01 T00940003  RH  053%=      5-min Rain = 0
KGO1 170157Z 19005KT 10/00 A2985 RMK A01 T00950003  RH  053%=      5-min Rain = 0
KGO1 170158Z 19005KT 10/00 A2985 RMK A01 T00950003  RH  053%=      5-min Rain = 0
KGO1 170159Z 19005KT 09/00 A2985 RMK A01 T00940003  RH  053%=      5-min Rain = 0
KGO1 170200Z 19004KT 09/00 A2985 RMK A01 T00930001  RH  053%=      5-min Rain = 0
KGO1 170201Z 19004KT 09/00 A2985 RMK A01 T00930000  RH  052%=      5-min Rain = 0
KGO1 170202Z 19004KT 09/M00 A2985 RMK A01 T00941001  RH  052%=      5-min Rain = 0
KGO1 170203Z 18004KT 10/M00 A2985 RMK A01 T00951001  RH  051%=      5-min Rain = 0
KGO1 170204Z 19004KT 10/M00 A2985 RMK A01 T00951001  RH  051%=      5-min Rain = 0
KGO1 170205Z 19004KT 10/M00 A2985 RMK A01 T00961002  RH  050%=      5-min Rain = 0
KGO1 170206Z 18004KT 10/M00 A2985 RMK A01 T00971002  RH  050%=      5-min Rain = 0
KGO1 170207Z 18004KT 10/M00 A2985 RMK A01 T00981001  RH  050%=      5-min Rain = 0
KGO1 170208Z 18004KT 10/00 A2985 RMK A01 T009700-0  RH  051%=      5-min Rain = 0
KGO1 170209Z 18004KT 10/00 A2985 RMK A01 T009500-0  RH  051%=      5-min Rain = 0
KGO1 170210Z 18004KT 09/00 A2985 RMK A01 T009400-0  RH  052%=      5-min Rain = 0
KGO1 170211Z 18004KT 09/00 A2985 RMK A01 T009300-0  RH  052%=      5-min Rain = 0
KGO1 170212Z 18004KT 09/00 A2985 RMK A01 T009200-0  RH  052%=      5-min Rain = 0
KGO1 170213Z 17004KT 09/M00 A2985 RMK A01 T00921001  RH  052%=      5-min Rain = 0
KGO1 170214Z 16005KT 09/00 A2985 RMK A01 T00920000  RH  053%=      5-min Rain = 0
KGO1 170215Z 17005KT 09/00 A2985 RMK A01 T00910001  RH  053%=      5-min Rain = 0
KGO1 170216Z 17005KT 09/00 A2985 RMK A01 T00900000  RH  053%=      5-min Rain = 0
KGO1 170217Z 17005KT 09/00 A2985 RMK A01 T00900000  RH  053%=      5-min Rain = 0
KGO1 170218Z 17005KT 09/00 A2985 RMK A01 T009100-0  RH  053%=      5-min Rain = 0
KGO1 170219Z 18005KT 09/00 A2985 RMK A01 T00920000  RH  053%=      5-min Rain = 0
KGO1 170220Z 18005KT 09/00 A2985 RMK A01 T00920000  RH  052%=      5-min Rain = 0
KGO1 170221Z 18005KT 09/M00 A2985 RMK A01 T00941001  RH  052%=      5-min Rain = 0
KGO1 170222Z 18006KT 10/M00 A2985 RMK A01 T00961001  RH  051%=      5-min Rain = 0
KGO1 170223Z 18006KT 10/M00 A2985 RMK A01 T00951001  RH  051%=      5-min Rain = 0
KGO1 170224Z 18006KT 09/M00 A2985 RMK A01 T00931001  RH  052%=      5-min Rain = 0
KGO1 170225Z 18006KT 09/M00 A2985 RMK A01 T00911001  RH  053%=      5-min Rain = 0
KGO1 170226Z 18006KT 09/00 A2985 RMK A01 T00900001  RH  054%=      5-min Rain = 0
KGO1 170227Z 17006KT 09/00 A2985 RMK A01 T00870002  RH  055%=      5-min Rain = 0
KGO1 170228Z 18006KT 08/00 A2985 RMK A01 T00840003  RH  057%=      5-min Rain = 0
KGO1 170229Z 17006KT 08/00 A2985 RMK A01 T00800004  RH  059%=      5-min Rain = 0
KGO1 170230Z 17006KT 08/00 A2985 RMK A01 T00760004  RH  060%=      5-min Rain = 0
KGO1 170231Z 17006KT 08/01 A2985 RMK A01 T00760005  RH  061%=      5-min Rain = 0
KGO1 170232Z 17007KT 08/00 A2985 RMK A01 T00760004  RH  061%=      5-min Rain = 0
KGO1 170233Z 18007KT 08/00 A2985 RMK A01 T00750003  RH  060%=      5-min Rain = 0
KGO1 170234Z 17007KT 07/00 A2985 RMK A01 T00740003  RH  061%=      5-min Rain = 0
KGO1 170235Z 18007KT 07/01 A2985 RMK A01 T00710005  RH  062%=      5-min Rain = 0
KGO1 170236Z 18007KT 07/00 A2985 RMK A01 T00700004  RH  063%=      5-min Rain = 0
KGO1 170237Z 18006KT 07/00 A2985 RMK A01 T00690004  RH  063%=      5-min Rain = 0
KGO1 170238Z 18007KT 07/01 A2985 RMK A01 T00680005  RH  064%=      5-min Rain = 0
KGO1 170239Z 18006KT 07/00 A2985 RMK A01 T00680004  RH  064%=      5-min Rain = 0
KGO1 170240Z 18006KT 07/00 A2985 RMK A01 T00690002  RH  062%=      5-min Rain = 0
KGO1 170241Z 18006KT 07/00 A2985 RMK A01 T00720000  RH  060%=      5-min Rain = 0
KGO1 170242Z 18005KT 08/00 A2985 RMK A01 T00750002  RH  060%=      5-min Rain = 0
KGO1 170243Z 18005KT 08/00 A2985 RMK A01 T00760002  RH  059%=      5-min Rain = 0
KGO1 170244Z 18006KT 08/00 A2985 RMK A01 T00760002  RH  059%=      5-min Rain = 0
KGO1 170245Z 18006KT 08/00 A2985 RMK A01 T00770000  RH  059%=      5-min Rain = 0
KGO1 170246Z 18006KT 08/00 A2985 RMK A01 T007800-0  RH  058%=      5-min Rain = 0
KGO1 170247Z 18006KT 08/00 A2985 RMK A01 T008000-0  RH  057%=      5-min Rain = 0
KGO1 170248Z 18006KT 08/00 A2985 RMK A01 T00810000  RH  057%=      5-min Rain = 0
KGO1 170249Z 18006KT 08/00 A2985 RMK A01 T00800001  RH  058%=      5-min Rain = 0
KGO1 170250Z 18006KT 08/00 A2985 RMK A01 T00780001  RH  058%=      5-min Rain = 0
KGO1 170251Z 18006KT 08/00 A2985 RMK A01 T00780001  RH  058%=      5-min Rain = 0
KGO1 170252Z 18006KT 08/00 A2985 RMK A01 T00790000  RH  058%=      5-min Rain = 0
KGO1 170253Z 19006KT 08/00 A2985 RMK A01 T008000-0  RH  057%=      5-min Rain = 0
KGO1 170254Z 19006KT 08/00 A2985 RMK A01 T008200-0  RH  056%=      5-min Rain = 0
KGO1 170255Z 19006KT 08/00 A2985 RMK A01 T00830001  RH  056%=      5-min Rain = 0
KGO1 170256Z 19005KT 08/00 A2985 RMK A01 T00820001  RH  057%=      5-min Rain = 0
KGO1 170257Z 20005KT 08/00 A2985 RMK A01 T00780002  RH  058%=      5-min Rain = 0
KGO1 170258Z 20005KT 08/00 A2985 RMK A01 T00760002  RH  059%=      5-min Rain = 0
KGO1 170259Z 20005KT 07/00 A2985 RMK A01 T00720002  RH  061%=      5-min Rain = 0
KGO1 170300Z 20005KT 07/00 A2985 RMK A01 T00710000  RH  061%=      5-min Rain = 0
KGO1 170301Z 20005KT 07/00 A2985 RMK A01 T00690001  RH  062%=      5-min Rain = 0
KGO1 170302Z 20005KT 07/00 A2985 RMK A01 T00680001  RH  062%=      5-min Rain = 0
KGO1 170303Z 20005KT 07/M00 A2985 RMK A01 T00681001  RH  062%=      5-min Rain = 0
KGO1 170304Z 20005KT 07/M00 A2985 RMK A01 T00701001  RH  061%=      5-min Rain = 0
KGO1 170305Z 20005KT 07/00 A2985 RMK A01 T00720000  RH  060%=      5-min Rain = 0
KGO1 170306Z 20005KT 07/00 A2985 RMK A01 T007200-0  RH  060%=      5-min Rain = 0
KGO1 170307Z 20006KT 07/M00 A2985 RMK A01 T00721001  RH  060%=      5-min Rain = 0
KGO1 170308Z 20005KT 07/M00 A2985 RMK A01 T00721001  RH  060%=      5-min Rain = 0
KGO1 170309Z 20005KT 07/M00 A2985 RMK A01 T00671002  RH  061%=      5-min Rain = 0
KGO1 170310Z 20005KT 07/M00 A2985 RMK A01 T00651001  RH  063%=      5-min Rain = 0
KGO1 170311Z 19005KT 06/00 A2985 RMK A01 T006300-0  RH  064%=      5-min Rain = 0
KGO1 170312Z 19005KT 06/00 A2985 RMK A01 T00620000  RH  065%=      5-min Rain = 0
KGO1 170313Z 19005KT 06/00 A2985 RMK A01 T00610002  RH  066%=      5-min Rain = 0
KGO1 170314Z 19005KT 06/00 A2985 RMK A01 T00610004  RH  067%=      5-min Rain = 0
KGO1 170315Z 19006KT 06/01 A2985 RMK A01 T00600005  RH  068%=      5-min Rain = 0
KGO1 170316Z 19005KT 06/00 A2985 RMK A01 T00590004  RH  068%=      5-min Rain = 0
KGO1 170317Z 19006KT 06/00 A2985 RMK A01 T00580002  RH  067%=      5-min Rain = 0
KGO1 170318Z 19006KT 06/00 A2985 RMK A01 T00580002  RH  067%=      5-min Rain = 0
KGO1 170319Z 20006KT 06/00 A2985 RMK A01 T00580001  RH  067%=      5-min Rain = 0
KGO1 170320Z 20006KT 06/00 A2985 RMK A01 T00590002  RH  066%=      5-min Rain = 0
KGO1 170321Z 20006KT 06/00 A2985 RMK A01 T00620001  RH  065%=      5-min Rain = 0
KGO1 170322Z 20006KT 06/00 A2985 RMK A01 T00640001  RH  064%=      5-min Rain = 0
KGO1 170323Z 20006KT 07/00 A2985 RMK A01 T00660001  RH  064%=      5-min Rain = 0
KGO1 170324Z 20006KT 07/00 A2985 RMK A01 T00650001  RH  063%=      5-min Rain = 0
KGO1 170325Z 20007KT 07/00 A2985 RMK A01 T00650000  RH  063%=      5-min Rain = 0
KGO1 170326Z 20007KT 07/00 A2985 RMK A01 T00650000  RH  063%=      5-min Rain = 0
KGO1 170327Z 20008KT 06/00 A2985 RMK A01 T00640001  RH  064%=      5-min Rain = 0
KGO1 170328Z 20008KT 06/00 A2985 RMK A01 T00640001  RH  064%=      5-min Rain = 0
KGO1 170329Z 19008KT 06/00 A2985 RMK A01 T00640001  RH  064%=      5-min Rain = 0
KGO1 170330Z 19008KT 06/00 A2985 RMK A01 T00640001  RH  064%=      5-min Rain = 0
KGO1 170331Z 19008KT 07/00 A2985 RMK A01 T00650002  RH  064%=      5-min Rain = 0
KGO1 170332Z 19008KT 07/00 A2985 RMK A01 T00660003  RH  064%=      5-min Rain = 0
KGO1 170333Z 19008KT 07/00 A2985 RMK A01 T00660004  RH  064%=      5-min Rain = 0
KGO1 170334Z 20008KT 07/00 A2985 RMK A01 T00660004  RH  065%=      5-min Rain = 0
KGO1 170335Z 20008KT 07/00 A2985 RMK A01 T00650004  RH  065%=      5-min Rain = 0
KGO1 170336Z 20008KT 07/00 A2985 RMK A01 T00650004  RH  065%=      5-min Rain = 0
KGO1 170337Z 20008KT 07/00 A2985 RMK A01 T00650004  RH  065%=      5-min Rain = 0
KGO1 170338Z 20008KT 07/00 A2985 RMK A01 T00650004  RH  065%=      5-min Rain = 0
KGO1 170339Z 20008KT 07/00 A2985 RMK A01 T00650004  RH  065%=      5-min Rain = 0
KGO1 170340Z 20008KT 07/00 A2985 RMK A01 T00650004  RH  065%=      5-min Rain = 0
KGO1 170341Z 20008KT 07/00 A2985 RMK A01 T00650004  RH  065%=      5-min Rain = 0
KGO1 170342Z 20008KT 07/00 A2985 RMK A01 T00650004  RH  065%=      5-min Rain = 0
KGO1 170343Z 20008KT 07/01 A2985 RMK A01 T00650005  RH  065%=      5-min Rain = 0
KGO1 170344Z 20008KT 07/01 A2985 RMK A01 T00650006  RH  066%=      5-min Rain = 0
KGO1 170345Z 20008KT 06/01 A2985 RMK A01 T00640005  RH  066%=      5-min Rain = 0
KGO1 170346Z 20008KT 06/01 A2985 RMK A01 T00630005  RH  066%=      5-min Rain = 0
KGO1 170347Z 20008KT 06/00 A2985 RMK A01 T00610004  RH  067%=      5-min Rain = 0
KGO1 170348Z 20008KT 06/00 A2985 RMK A01 T00600004  RH  067%=      5-min Rain = 0
KGO1 170349Z 19008KT 06/00 A2985 RMK A01 T00600004  RH  067%=      5-min Rain = 0
KGO1 170350Z 19008KT 06/00 A2985 RMK A01 T00590003  RH  067%=      5-min Rain = 0
KGO1 170351Z 20008KT 06/00 A2985 RMK A01 T00580003  RH  067%=      5-min Rain = 0
KGO1 170352Z 20007KT 06/00 A2985 RMK A01 T00580003  RH  068%=      5-min Rain = 0
KGO1 170353Z 20007KT 06/00 A2985 RMK A01 T00580003  RH  068%=      5-min Rain = 0
KGO1 170354Z 20007KT 06/00 A2985 RMK A01 T00580002  RH  067%=      5-min Rain = 0
KGO1 170355Z 20007KT 06/00 A2985 RMK A01 T00570002  RH  068%=      5-min Rain = 0
KGO1 170356Z 20007KT 06/00 A2985 RMK A01 T00570002  RH  068%=      5-min Rain = 0
KGO1 170357Z 21007KT 06/00 A2985 RMK A01 T00560002  RH  068%=      5-min Rain = 0
KGO1 170358Z 21006KT 06/00 A2985 RMK A01 T00570000  RH  067%=      5-min Rain = 0
KGO1 170359Z 21006KT 06/00 A2985 RMK A01 T00570000  RH  067%=      5-min Rain = 0
KGO1 170400Z 20006KT 06/M00 A2985 RMK A01 T00591001  RH  066%=      5-min Rain = 0
KGO1 170401Z 20006KT 06/00 A2985 RMK A01 T006100-0  RH  065%=      5-min Rain = 0
KGO1 170402Z 19006KT 06/M00 A2985 RMK A01 T00631001  RH  064%=      5-min Rain = 0
KGO1 170403Z 19005KT 06/00 A2985 RMK A01 T00630001  RH  064%=      5-min Rain = 0
KGO1 170404Z 19005KT 06/00 A2985 RMK A01 T00600000  RH  066%=      5-min Rain = 0
KGO1 170405Z 19005KT 06/00 A2985 RMK A01 T005700-0  RH  066%=      5-min Rain = 0
KGO1 170406Z 19005KT 06/00 A2985 RMK A01 T005700-0  RH  067%=      5-min Rain = 0
KGO1 170407Z 19004KT 06/00 A2985 RMK A01 T00550000  RH  068%=      5-min Rain = 0
KGO1 170408Z 19004KT 05/00 A2985 RMK A01 T00500001  RH  070%=      5-min Rain = 0
KGO1 170409Z 19004KT 05/00 A2985 RMK A01 T00480001  RH  071%=      5-min Rain = 0
KGO1 170410Z 19004KT 05/00 A2985 RMK A01 T004800-0  RH  071%=      5-min Rain = 0
KGO1 170411Z 19004KT 05/M00 A2985 RMK A01 T00501001  RH  069%=      5-min Rain = 0
KGO1 170412Z 19004KT 05/M00 A2985 RMK A01 T00531001  RH  068%=      5-min Rain = 0
KGO1 170413Z 19003KT 06/M00 A2985 RMK A01 T00561002  RH  066%=      5-min Rain = 0
KGO1 170414Z 19003KT 06/M00 A2985 RMK A01 T00571002  RH  066%=      5-min Rain = 0
KGO1 170415Z 19003KT 06/M00 A2985 RMK A01 T00581004  RH  064%=      5-min Rain = 0
KGO1 170416Z 19002KT 06/M01 A2985 RMK A01 T00591005  RH  063%=      5-min Rain = 0
KGO1 170417Z 18001KT 06/M01 A2985 RMK A01 T00601006  RH  062%=      5-min Rain = 0
KGO1 170418Z 17001KT 06/M01 A2985 RMK A01 T00591007  RH  062%=      5-min Rain = 0
KGO1 170419Z 18000KT 06/M01 A2985 RMK A01 T00591007  RH  062%=      5-min Rain = 0
KGO1 170420Z 17001KT 06/M01 A2985 RMK A01 T00601007  RH  062%=      5-min Rain = 0
KGO1 170421Z 17001KT 06/M01 A2985 RMK A01 T00591007  RH  062%=      5-min Rain = 0
KGO1 170422Z 18000KT 06/M01 A2985 RMK A01 T00581008  RH  063%=      5-min Rain = 0
KGO1 170423Z 16001KT 06/M01 A2985 RMK A01 T00571008  RH  063%=      5-min Rain = 0
KGO1 170424Z 16001KT 06/M01 A2985 RMK A01 T00591008  RH  062%=      5-min Rain = 0
KGO1 170425Z 15001KT 06/M01 A2985 RMK A01 T00591007  RH  063%=      5-min Rain = 0
KGO1 170426Z 15001KT 06/M01 A2985 RMK A01 T00591006  RH  063%=      5-min Rain = 0
KGO1 170427Z 14002KT 06/M01 A2985 RMK A01 T00601007  RH  062%=      5-min Rain = 0
KGO1 170428Z 15003KT 06/M01 A2985 RMK A01 T00611008  RH  061%=      5-min Rain = 0
KGO1 170429Z 16003KT 06/M01 A2985 RMK A01 T00631008  RH  061%=      5-min Rain = 0
KGO1 170430Z 15003KT 07/M01 A2985 RMK A01 T00651008  RH  060%=      5-min Rain = 0
KGO1 170431Z 15004KT 07/M01 A2985 RMK A01 T00681008  RH  058%=      5-min Rain = 0
KGO1 170432Z 16004KT 07/M01 A2985 RMK A01 T00711009  RH  057%=      5-min Rain = 0
KGO1 170433Z 16004KT 07/M01 A2985 RMK A01 T00731010  RH  056%=      5-min Rain = 0
KGO1 170434Z 16004KT 08/M01 A2985 RMK A01 T00751010  RH  055%=      5-min Rain = 0
KGO1 170435Z 16005KT 07/M01 A2985 RMK A01 T00741010  RH  055%=      5-min Rain = 0
KGO1 170436Z 16004KT 07/M01 A2985 RMK A01 T00741010  RH  055%=      5-min Rain = 0
KGO1 170437Z 16004KT 07/M01 A2985 RMK A01 T00741010  RH  055%=      5-min Rain = 0
KGO1 170438Z 16003KT 07/M01 A2985 RMK A01 T00741010  RH  055%=      5-min Rain = 0
KGO1 170439Z 17003KT 07/M01 A2984 RMK A01 T00741009  RH  056%=      5-min Rain = 0
KGO1 170440Z 17003KT 07/M01 A2984 RMK A01 T00721009  RH  056%=      5-min Rain = 0
KGO1 170441Z 17003KT 07/M01 A2984 RMK A01 T00701010  RH  057%=      5-min Rain = 0
KGO1 170442Z 18003KT 07/M01 A2984 RMK A01 T00701010  RH  057%=      5-min Rain = 0
KGO1 170443Z 18003KT 07/M01 A2984 RMK A01 T00701010  RH  057%=      5-min Rain = 0
KGO1 170444Z 18004KT 07/M01 A2984 RMK A01 T00711010  RH  057%=      5-min Rain = 0
KGO1 170445Z 19004KT 07/M01 A2984 RMK A01 T00701011  RH  056%=      5-min Rain = 0
KGO1 170446Z 19003KT 07/M01 A2984 RMK A01 T00701012  RH  056%=      5-min Rain = 0
KGO1 170447Z 18003KT 07/M01 A2984 RMK A01 T00711012  RH  056%=      5-min Rain = 0
KGO1 170448Z 18004KT 07/M01 A2984 RMK A01 T00701012  RH  056%=      5-min Rain = 0
KGO1 170449Z 19004KT 07/M01 A2984 RMK A01 T00681012  RH  057%=      5-min Rain = 0
KGO1 170450Z 19004KT 07/M01 A2984 RMK A01 T00681012  RH  057%=      5-min Rain = 0
KGO1 170451Z 19004KT 07/M01 A2984 RMK A01 T00671012  RH  057%=      5-min Rain = 0
KGO1 170452Z 19004KT 07/M01 A2984 RMK A01 T00671012  RH  057%=      5-min Rain = 0
KGO1 170453Z 19004KT 07/M01 A2984 RMK A01 T00681012  RH  057%=      5-min Rain = 0
KGO1 170454Z 18006KT 07/M01 A2984 RMK A01 T00681012  RH  057%=      5-min Rain = 0
KGO1 170455Z 18006KT 07/M01 A2984 RMK A01 T00681013  RH  056%=      5-min Rain = 0
KGO1 170456Z 18006KT 07/M01 A2984 RMK A01 T00681011  RH  057%=      5-min Rain = 0
KGO1 170457Z 18006KT 07/M01 A2984 RMK A01 T00671010  RH  058%=      5-min Rain = 0
KGO1 170458Z 18006KT 07/M01 A2984 RMK A01 T00671009  RH  058%=      5-min Rain = 0
KGO1 170459Z 18006KT 07/M01 A2984 RMK A01 T00671009  RH  058%=      5-min Rain = 0
KGO1 170500Z 17005KT 07/M01 A2984 RMK A01 T00681009  RH  058%=      5-min Rain = 0
KGO1 170501Z 18006KT 07/M01 A2984 RMK A01 T00681009  RH  058%=      5-min Rain = 0
KGO1 170502Z 17006KT 07/M01 A2984 RMK A01 T00681010  RH  057%=      5-min Rain = 0
KGO1 170503Z 17006KT 07/M01 A2984 RMK A01 T00701011  RH  057%=      5-min Rain = 0
KGO1 170504Z 17005KT 07/M01 A2984 RMK A01 T00701012  RH  056%=      5-min Rain = 0
KGO1 170505Z 17005KT 07/M01 A2984 RMK A01 T00701012  RH  056%=      5-min Rain = 0
KGO1 170506Z 17005KT 07/M01 A2983 RMK A01 T00691011  RH  057%=      5-min Rain = 0
KGO1 170507Z 18006KT 07/M01 A2983 RMK A01 T00691012  RH  056%=      5-min Rain = 0
KGO1 170508Z 17005KT 07/M01 A2983 RMK A01 T00701011  RH  056%=      5-min Rain = 0
KGO1 170509Z 18005KT 07/M01 A2983 RMK A01 T00691011  RH  057%=      5-min Rain = 0
KGO1 170510Z 17005KT 07/M01 A2983 RMK A01 T00691012  RH  056%=      5-min Rain = 0
KGO1 170511Z 17005KT 07/M01 A2983 RMK A01 T00691012  RH  056%=      5-min Rain = 0
KGO1 170512Z 17006KT 07/M01 A2983 RMK A01 T00691011  RH  057%=      5-min Rain = 0
KGO1 170513Z 17005KT 07/M01 A2983 RMK A01 T00681012  RH  057%=      5-min Rain = 0
KGO1 170514Z 17005KT 07/M01 A2983 RMK A01 T00671012  RH  057%=      5-min Rain = 0
KGO1 170515Z 17006KT 07/M01 A2983 RMK A01 T00651012  RH  058%=      5-min Rain = 0
KGO1 170516Z 17006KT 06/M01 A2983 RMK A01 T00631013  RH  058%=      5-min Rain = 0
KGO1 170517Z 16007KT 06/M01 A2983 RMK A01 T00621012  RH  059%=      5-min Rain = 0
KGO1 170518Z 16008KT 06/M01 A2983 RMK A01 T00601011  RH  060%=      5-min Rain = 0
KGO1 170519Z 17008KT 06/M01 A2983 RMK A01 T00581010  RH  062%=      5-min Rain = 0
KGO1 170520Z 17008KT 06/M01 A2983 RMK A01 T00561009  RH  063%=      5-min Rain = 0
KGO1 170521Z 17009KT 05/M01 A2983 RMK A01 T00541009  RH  064%=      5-min Rain = 0
KGO1 170522Z 18009KT 05/M01 A2983 RMK A01 T00541007  RH  065%=      5-min Rain = 0
KGO1 170523Z 18010KT 05/M01 A2983 RMK A01 T00531006  RH  065%=      5-min Rain = 0
KGO1 170524Z 18010KT 05/M01 A2983 RMK A01 T00531006  RH  066%=      5-min Rain = 0
KGO1 170525Z 18010KT 05/M01 A2983 RMK A01 T00541006  RH  066%=      5-min Rain = 0
KGO1 170526Z 18010KT 05/M01 A2983 RMK A01 T00541005  RH  066%=      5-min Rain = 0
KGO1 170527Z 18009KT 06/M01 A2983 RMK A01 T00551005  RH  066%=      5-min Rain = 0
KGO1 170528Z 17009KT 05/M00 A2983 RMK A01 T00541004  RH  066%=      5-min Rain = 0
KGO1 170529Z 18010KT 05/M00 A2983 RMK A01 T00541004  RH  066%=      5-min Rain = 0
KGO1 170530Z 18010KT 05/M01 A2983 RMK A01 T00541005  RH  066%=      5-min Rain = 0
KGO1 170531Z 18010KT 05/M01 A2983 RMK A01 T00531005  RH  066%=      5-min Rain = 0
KGO1 170532Z 18009KT 05/M01 A2983 RMK A01 T00531006  RH  066%=      5-min Rain = 0
KGO1 170533Z 18009KT 05/M01 A2983 RMK A01 T00531006  RH  066%=      5-min Rain = 0
KGO1 170534Z 18009KT 05/M01 A2983 RMK A01 T00531006  RH  066%=      5-min Rain = 0
KGO1 170535Z 18009KT 05/M01 A2983 RMK A01 T00531006  RH  065%=      5-min Rain = 0
KGO1 170536Z 18009KT 05/M01 A2982 RMK A01 T00531006  RH  065%=      5-min Rain = 0
KGO1 170537Z 18009KT 05/M01 A2982 RMK A01 T00541006  RH  065%=      5-min Rain = 0
KGO1 170538Z 18009KT 05/M01 A2982 RMK A01 T00541006  RH  065%=      5-min Rain = 0
KGO1 170539Z 18009KT 05/M01 A2982 RMK A01 T00541006  RH  065%=      5-min Rain = 0
KGO1 170540Z 18009KT 05/M01 A2982 RMK A01 T00531006  RH  066%=      5-min Rain = 0
KGO1 170541Z 18009KT 05/M01 A2982 RMK A01 T00531006  RH  066%=      5-min Rain = 0
KGO1 170542Z 18010KT 05/M01 A2982 RMK A01 T00521006  RH  066%=      5-min Rain = 0
KGO1 170543Z 18010KT 05/M01 A2982 RMK A01 T00521006  RH  066%=      5-min Rain = 0
KGO1 170544Z 19010KT 05/M01 A2982 RMK A01 T00521007  RH  066%=      5-min Rain = 0
KGO1 170545Z 19009KT 05/M01 A2982 RMK A01 T00531007  RH  065%=      5-min Rain = 0
KGO1 170546Z 19009KT 05/M01 A2982 RMK A01 T00541007  RH  065%=      5-min Rain = 0
KGO1 170547Z 19009KT 05/M01 A2982 RMK A01 T00541007  RH  065%=      5-min Rain = 0
KGO1 170548Z 19008KT 05/M01 A2982 RMK A01 T00531008  RH  065%=      5-min Rain = 0
KGO1 170549Z 19008KT 05/M01 A2982 RMK A01 T00531008  RH  065%=      5-min Rain = 0
KGO1 170550Z 20008KT 05/M01 A2982 RMK A01 T00531008  RH  065%=      5-min Rain = 0
KGO1 170551Z 20008KT 05/M01 A2982 RMK A01 T00531008  RH  065%=      5-min Rain = 0
KGO1 170552Z 20008KT 05/M01 A2982 RMK A01 T00531008  RH  065%=      5-min Rain = 0
KGO1 170553Z 20008KT 05/M01 A2982 RMK A01 T00531008  RH  064%=      5-min Rain = 0
KGO1 170554Z 21009KT 06/M01 A2982 RMK A01 T00551009  RH  063%=      5-min Rain = 0
KGO1 170555Z 21009KT 06/M01 A2982 RMK A01 T00591008  RH  062%=      5-min Rain = 0
KGO1 170556Z 21009KT 06/M01 A2982 RMK A01 T00611008  RH  062%=      5-min Rain = 0
KGO1 170557Z 21009KT 06/M01 A2982 RMK A01 T00611008  RH  061%=      5-min Rain = 0
KGO1 170558Z 21009KT 06/M01 A2982 RMK A01 T00611008  RH  061%=      5-min Rain = 0
KGO1 170559Z 21009KT 06/M01 A2982 RMK A01 T00621009  RH  060%=      5-min Rain = 0

Page generated in 0.1218 seconds.